AUA187 FIMP-LOWW

Flight info

Callsign AUA187
Flight time 10h 33m
Altitude 36000
Route OKMAR1 OKMAR UT665 AMBOD UA665 TSARA DCT DENLI UN304 AVUSI/N0485F380 UN304 DWA DCT XADOX DCT KONET/N0485F390 UG650 RASKA/N0488F380 T513 EGMEG/N0485F390 G660 JDW/N0488F380 L677 RAGNO/N0486F400 L677 CVO L617 NOZ L551 ANTAR UN133 PEREN UL863 EVIVI L863 EDIKA DCT OKANA DCT ESIRI DCT PARAK DCT BALUX DCT TORNO DCT NATEX NATEX2W
Aircraft B772/H-SDE2E3FGHIJ5LORVWXY/LB1D1

Departure

Time 2026-04-25 22:42
Airport Sir Seewoosagur Ramgoolam International Airport (FIMP)

Arrival

Time 2026-04-26 09:16
Airport Vienna International Airport (LOWW)
Time Latitude Longitude Altitude Speed Heading
2026-04-25 21:48 -20.43322 57.67986 191 ft 0 kts 249°
2026-04-25 22:32 -20.43316 57.68005 196 ft 4 kts 252°
2026-04-25 22:32 -20.43309 57.68033 206 ft 4 kts 260°
2026-04-25 22:32 -20.43306 57.68061 206 ft 4 kts 272°
2026-04-25 22:33 -20.43311 57.68087 206 ft 4 kts 304°
2026-04-25 22:33 -20.43321 57.68099 206 ft 0 kts 342°
2026-04-25 22:36 -20.43281 57.68084 204 ft 10 kts 338°
2026-04-25 22:36 -20.43219 57.68051 202 ft 10 kts 329°
2026-04-25 22:36 -20.43164 57.68006 206 ft 10 kts 317°
2026-04-25 22:37 -20.43116 57.67951 201 ft 10 kts 312°
2026-04-25 22:37 -20.43079 57.67887 200 ft 10 kts 295°
2026-04-25 22:37 -20.43047 57.67821 206 ft 10 kts 297°
2026-04-25 22:37 -20.43015 57.67755 198 ft 10 kts 297°
2026-04-25 22:38 -20.42982 57.67688 204 ft 10 kts 296°
2026-04-25 22:38 -20.42933 57.67637 202 ft 10 kts 335°
2026-04-25 22:38 -20.42870 57.67603 206 ft 10 kts 332°
2026-04-25 22:38 -20.42813 57.67559 202 ft 10 kts 322°
2026-04-25 22:39 -20.42757 57.67512 199 ft 10 kts 322°
2026-04-25 22:39 -20.42695 57.67477 207 ft 10 kts 343°
2026-04-25 22:39 -20.42628 57.67455 205 ft 10 kts 343°
2026-04-25 22:39 -20.42566 57.67403 205 ft 14 kts 301°
2026-04-25 22:40 -20.42520 57.67307 213 ft 15 kts 297°
2026-04-25 22:40 -20.42513 57.67228 208 ft 9 kts 282°
2026-04-25 22:40 -20.42488 57.67220 209 ft 2 kts 39°
2026-04-25 22:40 -20.42489 57.67237 215 ft 3 kts 101°
2026-04-25 22:41 -20.42498 57.67261 215 ft 3 kts 115°
2026-04-25 22:41 -20.42499 57.67265 215 ft 1 kts 115°
2026-04-25 22:41 -20.42509 57.67285 210 ft 13 kts 116°
2026-04-25 22:41 -20.42626 57.67527 210 ft 68 kts 117°
2026-04-25 22:42 -20.42943 57.68185 200 ft 129 kts 117°
2026-04-25 22:42 -20.43435 57.69207 169 ft 178 kts 117°
2026-04-25 22:42 -20.44006 57.70383 739 ft 175 kts 120°
2026-04-25 22:42 -20.44558 57.71538 1496 ft 176 kts 119°
2026-04-25 22:43 -20.45130 57.72725 2019 ft 188 kts 119°
2026-04-25 22:43 -20.45762 57.74048 2137 ft 213 kts 118°
2026-04-25 22:43 -20.46239 57.75567 2332 ft 229 kts 94°
2026-04-25 22:43 -20.45814 57.77286 2513 ft 251 kts 57°
2026-04-25 22:44 -20.44551 57.78472 2839 ft 258 kts 33°
2026-04-25 22:44 -20.42956 57.79516 3292 ft 264 kts 34°
2026-04-25 22:44 -20.41424 57.80636 3725 ft 270 kts 37°
2026-04-25 22:44 -20.39748 57.81563 4112 ft 278 kts 14°
2026-04-25 22:45 -20.37819 57.81513 4506 ft 284 kts 340°
2026-04-25 22:45 -20.36073 57.80550 5062 ft 281 kts 329°
2026-04-25 22:45 -20.34354 57.79510 5560 ft 286 kts 331°
2026-04-25 22:45 -20.32608 57.78484 6114 ft 287 kts 331°
2026-04-25 22:46 -20.30859 57.77458 6718 ft 286 kts 331°
2026-04-25 22:46 -20.29111 57.76436 7174 ft 290 kts 331°
2026-04-25 22:46 -20.27333 57.75399 7631 ft 294 kts 331°
2026-04-25 22:46 -20.25519 57.74342 8053 ft 297 kts 331°
2026-04-25 22:47 -20.23712 57.73290 8569 ft 296 kts 331°
2026-04-25 22:47 -20.21904 57.72238 9060 ft 298 kts 331°
2026-04-25 22:47 -20.20062 57.71168 9461 ft 301 kts 331°
2026-04-25 22:47 -20.18213 57.70094 9874 ft 304 kts 331°
2026-04-25 22:48 -20.16343 57.69009 10177 ft 312 kts 331°
2026-04-25 22:48 -20.14388 57.67874 10275 ft 327 kts 331°
2026-04-25 22:48 -20.12372 57.66705 10397 ft 341 kts 331°
2026-04-25 22:48 -20.10239 57.65467 10509 ft 358 kts 331°
2026-04-25 22:49 -20.08002 57.64170 10648 ft 375 kts 331°
2026-04-25 22:49 -20.05674 57.62820 10988 ft 387 kts 331°
2026-04-25 22:49 -20.03244 57.61413 11505 ft 394 kts 331°
2026-04-25 22:49 -20.00864 57.60034 12138 ft 396 kts 330°
2026-04-25 22:50 -19.98521 57.58466 12753 ft 400 kts 323°
2026-04-25 22:50 -19.96309 57.56650 13370 ft 403 kts 320°
2026-04-25 22:50 -19.94147 57.54735 13963 ft 406 kts 319°
2026-04-25 22:50 -19.91981 57.52787 14480 ft 409 kts 319°
2026-04-25 22:51 -19.89791 57.50831 14988 ft 413 kts 320°
2026-04-25 22:51 -19.87565 57.48870 15508 ft 416 kts 320°
2026-04-25 22:51 -19.85319 57.46914 16019 ft 419 kts 320°
2026-04-25 22:51 -19.83050 57.44957 16510 ft 422 kts 321°
2026-04-25 22:52 -19.80754 57.42988 16973 ft 426 kts 321°
2026-04-25 22:52 -19.78435 57.41007 17453 ft 429 kts 321°
2026-04-25 22:52 -19.76098 57.39013 17895 ft 433 kts 321°
2026-04-25 22:52 -19.74537 57.37683 18155 ft 436 kts 321°
2026-04-25 22:53 -19.71350 57.34968 18573 ft 442 kts 321°
2026-04-25 22:53 -19.68937 57.32913 18952 ft 445 kts 320°
2026-04-25 22:53 -19.66553 57.30883 19354 ft 446 kts 320°
2026-04-25 22:53 -19.64116 57.28808 19713 ft 450 kts 320°
2026-04-25 22:54 -19.61671 57.26727 20028 ft 453 kts 320°
2026-04-25 22:54 -19.59190 57.24617 20351 ft 457 kts 320°
2026-04-25 22:54 -19.56704 57.22502 20679 ft 460 kts 320°
2026-04-25 22:54 -19.54198 57.20372 21009 ft 463 kts 320°
2026-04-25 22:55 -19.51679 57.18232 21322 ft 466 kts 319°
2026-04-25 22:55 -19.49143 57.16078 21642 ft 469 kts 319°
2026-04-25 22:55 -19.46585 57.13906 21954 ft 472 kts 319°
2026-04-25 22:55 -19.44017 57.11727 22272 ft 475 kts 319°
2026-04-25 22:56 -19.41426 57.09529 22577 ft 478 kts 319°
2026-04-25 22:56 -19.38826 57.07324 22871 ft 481 kts 319°
2026-04-25 22:56 -19.36206 57.05103 23159 ft 484 kts 318°
2026-04-25 22:56 -19.33574 57.02873 23453 ft 486 kts 318°
2026-04-25 22:57 -19.30918 57.00625 23721 ft 488 kts 318°
2026-04-25 22:57 -19.28262 56.98377 24017 ft 489 kts 318°
2026-04-25 22:57 -19.25609 56.96134 24330 ft 489 kts 318°
2026-04-25 22:57 -19.22943 56.93879 24656 ft 490 kts 318°
2026-04-25 22:58 -19.20280 56.91629 24939 ft 491 kts 318°
2026-04-25 22:58 -19.17612 56.89374 25225 ft 492 kts 318°
2026-04-25 22:58 -19.14936 56.87114 25498 ft 493 kts 318°
2026-04-25 22:58 -19.12253 56.84848 25771 ft 494 kts 318°
2026-04-25 22:59 -19.09565 56.82580 26068 ft 495 kts 318°
2026-04-25 22:59 -19.06867 56.80304 26366 ft 495 kts 318°
2026-04-25 22:59 -19.04174 56.78034 26656 ft 496 kts 318°
2026-04-25 22:59 -19.01470 56.75755 26930 ft 497 kts 318°
2026-04-25 23:00 -18.98792 56.73499 27197 ft 499 kts 318°
2026-04-25 23:00 -18.96074 56.71209 27466 ft 500 kts 318°
2026-04-25 23:00 -18.93351 56.68917 27737 ft 501 kts 318°
2026-04-25 23:00 -18.90621 56.66620 27982 ft 502 kts 318°
2026-04-25 23:01 -18.87887 56.64321 28238 ft 503 kts 318°
2026-04-25 23:01 -18.85152 56.62022 28473 ft 504 kts 318°
2026-04-25 23:01 -18.82401 56.59711 28701 ft 505 kts 318°
2026-04-25 23:01 -18.79646 56.57397 28914 ft 506 kts 318°
2026-04-25 23:02 -18.76892 56.55084 29131 ft 507 kts 318°
2026-04-25 23:02 -18.74125 56.52762 29340 ft 508 kts 318°
2026-04-25 23:02 -18.71356 56.50439 29538 ft 509 kts 318°
2026-04-25 23:02 -18.68583 56.48114 29721 ft 509 kts 318°
2026-04-25 23:03 -18.65808 56.45788 29937 ft 510 kts 318°
2026-04-25 23:03 -18.63033 56.43465 30174 ft 508 kts 318°
2026-04-25 23:03 -18.60273 56.41154 30465 ft 506 kts 318°
2026-04-25 23:03 -18.57525 56.38855 30784 ft 503 kts 318°
2026-04-25 23:04 -18.54791 56.36568 31100 ft 500 kts 318°
2026-04-25 23:04 -18.52984 56.35057 31299 ft 498 kts 318°
2026-04-25 23:04 -18.49404 56.32064 31701 ft 496 kts 318°
2026-04-25 23:04 -18.46699 56.29803 32000 ft 494 kts 318°
2026-04-25 23:05 -18.44008 56.27554 32235 ft 493 kts 318°
2026-04-25 23:05 -18.41322 56.25311 32521 ft 492 kts 318°
2026-04-25 23:05 -18.38643 56.23075 32870 ft 489 kts 318°
2026-04-25 23:05 -18.35983 56.20856 33252 ft 484 kts 318°
2026-04-25 23:06 -18.33355 56.18665 33652 ft 480 kts 318°
2026-04-25 23:06 -18.30741 56.16486 33977 ft 478 kts 318°
2026-04-25 23:06 -18.28140 56.14317 34200 ft 477 kts 318°
2026-04-25 23:06 -18.25544 56.12152 34374 ft 477 kts 318°
2026-04-25 23:07 -18.22944 56.09986 34568 ft 476 kts 318°
2026-04-25 23:07 -18.20339 56.07820 34779 ft 476 kts 318°
2026-04-25 23:07 -18.17680 56.05761 35004 ft 476 kts 321°
2026-04-25 23:07 -18.14938 56.03811 35232 ft 476 kts 323°
2026-04-25 23:08 -18.12201 56.01935 35407 ft 475 kts 323°
2026-04-25 23:08 -18.09427 56.00047 35611 ft 475 kts 323°
2026-04-25 23:08 -18.06658 55.98151 35782 ft 474 kts 323°
2026-04-25 23:08 -18.03895 55.96240 35860 ft 476 kts 323°
2026-04-25 23:09 -17.98366 55.92377 35901 ft 477 kts 322°
2026-04-25 23:09 -17.92872 55.88522 35896 ft 473 kts 322°
2026-04-25 23:10 -17.87415 55.84696 35897 ft 469 kts 322°
2026-04-25 23:10 -17.81993 55.80899 35896 ft 467 kts 322°
2026-04-25 23:11 -17.76587 55.77116 35901 ft 467 kts 322°
2026-04-25 23:11 -17.71168 55.73327 35890 ft 468 kts 322°
2026-04-25 23:12 -17.65745 55.69537 35899 ft 470 kts 323°
2026-04-25 23:12 -17.60326 55.65754 35899 ft 471 kts 323°
2026-04-25 23:13 -17.54853 55.61936 35901 ft 473 kts 323°
2026-04-25 23:13 -17.49374 55.58116 35899 ft 474 kts 323°
2026-04-25 23:14 -17.44807 55.54928 35899 ft 474 kts 322°
2026-04-25 23:14 -17.39327 55.51074 35898 ft 474 kts 322°
2026-04-25 23:15 -17.33844 55.47240 35897 ft 474 kts 323°
2026-04-25 23:15 -17.27462 55.42815 35897 ft 473 kts 323°
2026-04-25 23:16 -17.22868 55.39630 35894 ft 472 kts 323°
2026-04-25 23:16 -17.17396 55.35835 35897 ft 472 kts 323°
2026-04-25 23:17 -17.11955 55.32061 35898 ft 471 kts 323°
2026-04-25 23:17 -17.06493 55.28276 35898 ft 471 kts 323°
2026-04-25 23:18 -17.01028 55.24491 35897 ft 470 kts 323°
2026-04-25 23:18 -16.95575 55.20717 35899 ft 470 kts 323°
2026-04-25 23:19 -16.90112 55.16940 35895 ft 470 kts 323°
2026-04-25 23:19 -16.84662 55.13174 35896 ft 470 kts 323°
2026-04-25 23:20 -16.79199 55.09401 35897 ft 471 kts 323°
2026-04-25 23:20 -16.73735 55.05631 35898 ft 471 kts 323°
2026-04-25 23:21 -16.68271 55.01862 35891 ft 471 kts 323°
2026-04-25 23:21 -16.62792 54.98087 35898 ft 472 kts 323°
2026-04-25 23:22 -16.57350 54.94340 35898 ft 472 kts 323°
2026-04-25 23:23 -16.49122 54.88679 35896 ft 472 kts 323°
2026-04-25 23:23 -16.43632 54.84905 35897 ft 473 kts 323°
2026-04-25 23:24 -16.38144 54.81134 35891 ft 472 kts 324°
2026-04-25 23:24 -16.32658 54.77368 35896 ft 472 kts 324°
2026-04-25 23:25 -16.27169 54.73603 35900 ft 472 kts 324°
2026-04-25 23:25 -16.21691 54.69847 35896 ft 472 kts 324°
2026-04-25 23:26 -16.16204 54.66088 35899 ft 471 kts 324°
2026-04-25 23:26 -16.10757 54.62358 35898 ft 471 kts 324°
2026-04-25 23:27 -16.05269 54.58602 35890 ft 471 kts 324°
2026-04-25 23:27 -15.99803 54.54864 35896 ft 470 kts 324°
2026-04-25 23:28 -15.94329 54.51125 35899 ft 470 kts 324°
2026-04-25 23:28 -15.88864 54.47398 35897 ft 470 kts 324°
2026-04-25 23:29 -15.83401 54.43675 35899 ft 470 kts 324°
2026-04-25 23:29 -15.77937 54.39953 35897 ft 470 kts 324°
2026-04-25 23:30 -15.72505 54.36254 35894 ft 469 kts 324°
2026-04-25 23:30 -15.67008 54.32513 35897 ft 469 kts 324°
2026-04-25 23:31 -15.61589 54.28827 35895 ft 469 kts 324°
2026-04-25 23:31 -15.56128 54.25116 35896 ft 469 kts 324°
2026-04-25 23:32 -15.50670 54.21409 35893 ft 469 kts 324°
2026-04-25 23:32 -15.45212 54.17704 35892 ft 469 kts 324°
2026-04-25 23:33 -15.39754 54.14001 35885 ft 468 kts 324°
2026-04-25 23:33 -15.34301 54.10305 35886 ft 468 kts 324°
2026-04-25 23:34 -15.28850 54.06612 35909 ft 468 kts 324°
2026-04-25 23:34 -15.23397 54.02920 35890 ft 468 kts 324°
2026-04-25 23:35 -15.17946 53.99231 35888 ft 468 kts 324°
2026-04-25 23:35 -15.12493 53.95543 35892 ft 468 kts 324°
2026-04-25 23:36 -15.07070 53.91877 35899 ft 468 kts 324°
2026-04-25 23:36 -15.01617 53.88193 35890 ft 468 kts 324°
2026-04-25 23:37 -14.96161 53.84513 35891 ft 468 kts 324°
2026-04-25 23:37 -14.90703 53.80835 35892 ft 468 kts 324°
2026-04-25 23:38 -14.85243 53.77155 35895 ft 468 kts 324°
2026-04-25 23:38 -14.79788 53.73481 35892 ft 468 kts 324°
2026-04-25 23:39 -14.74321 53.69801 35889 ft 468 kts 324°
2026-04-25 23:39 -14.68904 53.66156 35894 ft 468 kts 324°
2026-04-25 23:40 -14.63443 53.62485 35892 ft 468 kts 324°
2026-04-25 23:40 -14.57980 53.58814 35889 ft 468 kts 324°
2026-04-25 23:41 -14.52525 53.55150 35891 ft 468 kts 324°
2026-04-25 23:41 -14.47066 53.51486 35889 ft 468 kts 324°
2026-04-25 23:42 -14.41601 53.47821 35884 ft 468 kts 324°
2026-04-25 23:42 -14.36141 53.44161 35891 ft 468 kts 324°
2026-04-25 23:43 -14.30723 53.40531 35893 ft 467 kts 324°
2026-04-25 23:43 -14.25271 53.36880 35887 ft 467 kts 324°
2026-04-25 23:44 -14.19813 53.33227 35890 ft 467 kts 324°
2026-04-25 23:44 -14.14362 53.29582 35888 ft 467 kts 324°
2026-04-25 23:45 -14.08916 53.25942 35895 ft 467 kts 324°
2026-04-25 23:45 -14.03467 53.22302 35879 ft 466 kts 324°
2026-04-25 23:46 -13.98014 53.18661 35880 ft 466 kts 324°
2026-04-25 23:46 -13.92576 53.15033 35897 ft 466 kts 324°
2026-04-25 23:47 -13.87135 53.11404 35897 ft 466 kts 324°
2026-04-25 23:47 -13.81686 53.07773 35882 ft 466 kts 324°
2026-04-25 23:48 -13.76252 53.04153 35873 ft 466 kts 324°
2026-04-25 23:48 -13.70809 53.00529 35889 ft 466 kts 324°
2026-04-25 23:49 -13.65369 52.96910 35890 ft 465 kts 324°
2026-04-25 23:49 -13.59963 52.93315 35886 ft 465 kts 324°
2026-04-25 23:50 -13.54517 52.89695 35876 ft 465 kts 324°
2026-04-25 23:50 -13.49081 52.86084 35894 ft 465 kts 324°
2026-04-25 23:51 -13.43640 52.82472 35886 ft 465 kts 324°
2026-04-25 23:51 -13.38195 52.78858 35889 ft 465 kts 324°
2026-04-25 23:52 -13.32786 52.75271 35884 ft 466 kts 324°
2026-04-25 23:52 -13.27337 52.71660 35885 ft 466 kts 324°
2026-04-25 23:53 -13.21889 52.68050 35885 ft 466 kts 324°
2026-04-25 23:53 -13.16436 52.64440 35887 ft 466 kts 324°
2026-04-25 23:54 -13.10972 52.60824 35876 ft 467 kts 324°
2026-04-25 23:54 -13.05512 52.57213 35885 ft 467 kts 324°
2026-04-25 23:55 -13.00049 52.53601 35892 ft 467 kts 325°
2026-04-25 23:55 -12.94568 52.49980 35888 ft 467 kts 325°
2026-04-25 23:56 -12.89099 52.46369 35887 ft 468 kts 325°
2026-04-25 23:56 -12.83626 52.42757 35886 ft 468 kts 325°
2026-04-25 23:57 -12.78184 52.39167 35879 ft 468 kts 325°
2026-04-25 23:57 -12.72712 52.35559 35884 ft 468 kts 325°
2026-04-25 23:58 -12.67237 52.31950 35886 ft 468 kts 325°
2026-04-25 23:58 -12.61753 52.28338 35880 ft 468 kts 325°
2026-04-25 23:59 -12.56270 52.24728 35887 ft 469 kts 325°
2026-04-25 23:59 -12.50817 52.21140 35884 ft 469 kts 325°
2026-04-26 00:00 -12.45387 52.17447 35879 ft 469 kts 323°
2026-04-26 00:00 -12.40025 52.13652 35886 ft 469 kts 323°
2026-04-26 00:01 -12.35561 52.10491 35889 ft 469 kts 323°
2026-04-26 00:01 -12.30183 52.06705 35885 ft 469 kts 323°
2026-04-26 00:02 -12.24797 52.02929 35887 ft 470 kts 324°
2026-04-26 00:02 -12.19405 51.99155 35884 ft 470 kts 324°
2026-04-26 00:03 -12.14010 51.95380 35876 ft 470 kts 324°
2026-04-26 00:03 -12.08608 51.91600 35880 ft 470 kts 324°
2026-04-26 00:04 -12.03209 51.87825 35885 ft 470 kts 324°
2026-04-26 00:04 -11.97804 51.84048 35885 ft 471 kts 324°
2026-04-26 00:05 -11.92399 51.80272 35888 ft 471 kts 324°
2026-04-26 00:05 -11.87016 51.76513 35887 ft 471 kts 324°
2026-04-26 00:06 -11.81603 51.72736 35885 ft 471 kts 324°
2026-04-26 00:06 -11.76184 51.68956 35883 ft 471 kts 324°
2026-04-26 00:07 -11.70777 51.65187 35884 ft 471 kts 324°
2026-04-26 00:07 -11.65352 51.61406 35885 ft 472 kts 324°
2026-04-26 00:08 -11.59934 51.57632 35882 ft 472 kts 324°
2026-04-26 00:08 -11.54504 51.53852 35883 ft 472 kts 324°
2026-04-26 00:09 -11.49074 51.50073 35891 ft 472 kts 324°
2026-04-26 00:09 -11.43654 51.46304 35884 ft 472 kts 324°
2026-04-26 00:10 -11.38262 51.42555 35884 ft 472 kts 324°
2026-04-26 00:10 -11.32839 51.38787 35885 ft 472 kts 324°
2026-04-26 00:11 -11.27406 51.35013 35885 ft 472 kts 324°
2026-04-26 00:11 -11.21982 51.31247 35884 ft 472 kts 324°
2026-04-26 00:12 -11.16554 51.27481 35878 ft 472 kts 324°
2026-04-26 00:12 -11.11127 51.23717 35883 ft 472 kts 324°
2026-04-26 00:13 -11.05686 51.19945 35887 ft 472 kts 324°
2026-04-26 00:13 -11.00250 51.16178 35882 ft 473 kts 324°
2026-04-26 00:14 -10.94849 51.12437 35881 ft 473 kts 324°
2026-04-26 00:14 -10.89401 51.08665 35880 ft 473 kts 324°
2026-04-26 00:15 -10.83964 51.04903 35878 ft 473 kts 324°
2026-04-26 00:15 -10.78517 51.01135 35883 ft 473 kts 324°
2026-04-26 00:16 -10.73072 50.97371 35881 ft 473 kts 324°
2026-04-26 00:16 -10.67627 50.93607 35882 ft 473 kts 325°
2026-04-26 00:17 -10.62209 50.89864 35883 ft 473 kts 324°
2026-04-26 00:17 -10.56763 50.86104 35883 ft 473 kts 325°
2026-04-26 00:18 -10.51316 50.82344 35886 ft 473 kts 325°
2026-04-26 00:18 -10.45873 50.78589 35881 ft 472 kts 325°
2026-04-26 00:19 -10.40442 50.74844 35880 ft 471 kts 325°
2026-04-26 00:19 -10.35019 50.71106 35879 ft 470 kts 325°
2026-04-26 00:20 -10.29611 50.67380 35881 ft 469 kts 325°
2026-04-26 00:20 -10.24215 50.63663 35880 ft 469 kts 325°
2026-04-26 00:21 -10.18843 50.59965 35886 ft 468 kts 325°
2026-04-26 00:21 -10.13451 50.56253 35879 ft 468 kts 325°
2026-04-26 00:22 -10.08054 50.52540 35877 ft 468 kts 325°
2026-04-26 00:22 -10.02656 50.48828 35885 ft 469 kts 325°
2026-04-26 00:23 -9.96984 50.45578 35878 ft 470 kts 335°
2026-04-26 00:23 -9.90960 50.42982 35877 ft 470 kts 336°
2026-04-26 00:24 -9.85003 50.40401 35883 ft 470 kts 335°
2026-04-26 00:24 -9.78989 50.37770 35880 ft 471 kts 335°
2026-04-26 00:25 -9.72969 50.35126 35877 ft 471 kts 335°
2026-04-26 00:25 -9.66948 50.32481 35878 ft 472 kts 335°
2026-04-26 00:26 -9.60963 50.29853 35877 ft 472 kts 335°
2026-04-26 00:26 -9.54937 50.27208 35879 ft 472 kts 336°
2026-04-26 00:27 -9.48907 50.24564 35877 ft 472 kts 336°
2026-04-26 00:27 -9.42880 50.21922 35876 ft 472 kts 336°
2026-04-26 00:28 -9.36845 50.19277 35882 ft 472 kts 336°
2026-04-26 00:28 -9.30813 50.16635 35877 ft 472 kts 336°
2026-04-26 00:29 -9.24789 50.13996 35875 ft 471 kts 336°
2026-04-26 00:29 -9.18806 50.11377 35879 ft 471 kts 336°
2026-04-26 00:30 -9.12785 50.08743 35872 ft 471 kts 336°
2026-04-26 00:30 -9.06770 50.06111 35874 ft 471 kts 336°
2026-04-26 00:31 -9.00766 50.03486 35875 ft 471 kts 336°
2026-04-26 00:31 -8.94749 50.00856 35874 ft 470 kts 336°
2026-04-26 00:32 -8.88740 49.98231 35870 ft 470 kts 336°
2026-04-26 00:32 -8.79726 49.94294 35872 ft 470 kts 336°
2026-04-26 00:33 -8.73713 49.91669 35873 ft 470 kts 336°
2026-04-26 00:33 -8.67707 49.89047 35867 ft 471 kts 336°
2026-04-26 00:34 -8.61720 49.86436 35873 ft 471 kts 336°
2026-04-26 00:34 -8.55666 49.83795 35872 ft 471 kts 336°
2026-04-26 00:35 -8.49680 49.81186 35870 ft 471 kts 336°
2026-04-26 00:35 -8.43619 49.78545 35872 ft 472 kts 336°
2026-04-26 00:36 -8.37625 49.75933 35871 ft 472 kts 336°
2026-04-26 00:36 -8.31599 49.73309 35869 ft 472 kts 336°
2026-04-26 00:37 -8.25558 49.70679 35873 ft 472 kts 336°
2026-04-26 00:37 -8.19521 49.68051 35870 ft 472 kts 336°
2026-04-26 00:38 -8.13480 49.65423 35864 ft 472 kts 336°
2026-04-26 00:38 -8.07442 49.62797 35859 ft 473 kts 336°
2026-04-26 00:39 -8.01398 49.60169 35871 ft 473 kts 336°
2026-04-26 00:39 -7.96380 49.57988 35867 ft 473 kts 336°
2026-04-26 00:40 -7.89305 49.54914 35865 ft 473 kts 336°
2026-04-26 00:40 -7.83289 49.52301 35869 ft 474 kts 336°
2026-04-26 00:41 -7.77229 49.49669 35866 ft 474 kts 336°
2026-04-26 00:41 -7.71165 49.47037 35870 ft 474 kts 336°
2026-04-26 00:42 -7.65102 49.44406 35870 ft 474 kts 336°
2026-04-26 00:42 -7.59034 49.41773 35870 ft 475 kts 336°
2026-04-26 00:43 -7.52964 49.39141 35870 ft 475 kts 336°
2026-04-26 00:43 -7.46899 49.36511 35871 ft 475 kts 336°
2026-04-26 00:44 -7.41846 49.34321 35868 ft 475 kts 336°
2026-04-26 00:44 -7.35772 49.31689 35868 ft 475 kts 336°
2026-04-26 00:45 -7.29702 49.29059 35864 ft 475 kts 336°
2026-04-26 00:45 -7.23665 49.26445 35868 ft 475 kts 336°
2026-04-26 00:46 -7.17591 49.23815 35867 ft 475 kts 336°
2026-04-26 00:46 -7.11510 49.21182 35867 ft 475 kts 336°
2026-04-26 00:47 -7.05435 49.18553 35865 ft 476 kts 336°
2026-04-26 00:47 -6.99358 49.15924 35865 ft 476 kts 336°
2026-04-26 00:48 -6.93268 49.13290 35865 ft 476 kts 336°
2026-04-26 00:48 -6.87182 49.10658 35867 ft 476 kts 336°
2026-04-26 00:49 -6.81124 49.08037 35870 ft 476 kts 336°
2026-04-26 00:49 -6.74988 49.05383 35866 ft 477 kts 336°
2026-04-26 00:50 -6.68938 49.02767 35867 ft 477 kts 336°
2026-04-26 00:50 -6.62833 49.00129 35870 ft 477 kts 336°
2026-04-26 00:51 -6.56727 48.97490 35866 ft 478 kts 336°
2026-04-26 00:51 -6.50609 48.94847 35870 ft 478 kts 336°
2026-04-26 00:52 -6.44489 48.92204 35866 ft 479 kts 336°
2026-04-26 00:52 -6.38366 48.89560 35868 ft 479 kts 336°
2026-04-26 00:53 -6.32241 48.86916 35869 ft 479 kts 336°
2026-04-26 00:53 -6.26108 48.84270 35871 ft 479 kts 336°
2026-04-26 00:54 -6.19975 48.81624 35869 ft 480 kts 336°
2026-04-26 00:54 -6.13843 48.78979 35868 ft 479 kts 336°
2026-04-26 00:55 -6.07718 48.76338 35868 ft 479 kts 336°
2026-04-26 00:55 -6.01587 48.73695 35868 ft 479 kts 336°
2026-04-26 00:56 -5.95508 48.71075 35871 ft 478 kts 336°
2026-04-26 00:56 -5.89388 48.68437 35866 ft 478 kts 336°
2026-04-26 00:57 -5.83278 48.65805 35867 ft 478 kts 336°
2026-04-26 00:57 -5.77173 48.63176 35870 ft 477 kts 336°
2026-04-26 00:58 -5.71062 48.60544 35871 ft 478 kts 336°
2026-04-26 00:58 -5.64952 48.57914 35868 ft 477 kts 336°
2026-04-26 00:59 -5.58849 48.55288 35870 ft 477 kts 336°
2026-04-26 00:59 -5.52744 48.52661 35867 ft 477 kts 336°
2026-04-26 01:00 -5.46639 48.50035 35875 ft 477 kts 336°
2026-04-26 01:00 -5.40578 48.47428 35872 ft 477 kts 336°
2026-04-26 01:01 -5.34473 48.44802 35873 ft 477 kts 336°
2026-04-26 01:01 -5.28362 48.42175 35866 ft 477 kts 336°
2026-04-26 01:02 -5.22253 48.39549 35871 ft 477 kts 336°
2026-04-26 01:02 -5.16143 48.36923 35872 ft 478 kts 336°
2026-04-26 01:03 -5.10054 48.34307 35872 ft 478 kts 336°
2026-04-26 01:03 -5.03934 48.31679 35870 ft 479 kts 336°
2026-04-26 01:04 -4.97808 48.29047 35870 ft 479 kts 336°
2026-04-26 01:04 -4.91678 48.26415 35873 ft 479 kts 336°
2026-04-26 01:05 -4.85546 48.23783 35872 ft 479 kts 336°
2026-04-26 01:05 -4.79416 48.21152 35872 ft 479 kts 336°
2026-04-26 01:06 -4.73292 48.18524 35875 ft 478 kts 336°
2026-04-26 01:06 -4.67212 48.15916 35871 ft 478 kts 336°
2026-04-26 01:07 -4.61091 48.13290 35874 ft 477 kts 336°
2026-04-26 01:07 -4.54986 48.10671 35874 ft 477 kts 336°
2026-04-26 01:08 -4.48884 48.08054 35878 ft 476 kts 336°
2026-04-26 01:08 -4.42792 48.05442 35870 ft 476 kts 336°
2026-04-26 01:09 -4.36709 48.02835 35874 ft 475 kts 336°
2026-04-26 01:09 -4.30635 48.00231 35868 ft 474 kts 336°
2026-04-26 01:10 -4.24598 47.97643 35874 ft 474 kts 336°
2026-04-26 01:10 -4.18514 47.95036 35878 ft 475 kts 336°
2026-04-26 01:11 -4.12442 47.92432 35875 ft 475 kts 336°
2026-04-26 01:11 -4.06360 47.89822 35878 ft 476 kts 336°
2026-04-26 01:12 -4.00267 47.87208 35880 ft 476 kts 336°
2026-04-26 01:12 -3.94172 47.84594 35881 ft 476 kts 336°
2026-04-26 01:13 -3.88118 47.81997 35880 ft 476 kts 336°
2026-04-26 01:13 -3.82022 47.79383 35876 ft 477 kts 336°
2026-04-26 01:14 -3.75920 47.76767 35884 ft 477 kts 336°
2026-04-26 01:14 -3.69822 47.74153 35883 ft 477 kts 336°
2026-04-26 01:15 -3.63720 47.71537 35884 ft 477 kts 337°
2026-04-26 01:15 -3.57620 47.68923 35879 ft 477 kts 337°
2026-04-26 01:16 -3.51517 47.66308 35880 ft 476 kts 337°
2026-04-26 01:16 -3.45421 47.63696 35881 ft 476 kts 337°
2026-04-26 01:17 -3.39318 47.61082 35881 ft 476 kts 337°
2026-04-26 01:17 -3.33260 47.58487 35878 ft 476 kts 337°
2026-04-26 01:18 -3.27159 47.55874 35880 ft 477 kts 337°
2026-04-26 01:18 -3.21052 47.53259 35884 ft 477 kts 337°
2026-04-26 01:19 -3.14949 47.50645 35883 ft 477 kts 337°
2026-04-26 01:19 -3.08843 47.48031 35880 ft 477 kts 337°
2026-04-26 01:20 -3.02778 47.45435 35883 ft 477 kts 337°
2026-04-26 01:20 -2.96662 47.42819 35882 ft 477 kts 337°
2026-04-26 01:21 -2.90554 47.40209 35883 ft 477 kts 337°
2026-04-26 01:21 -2.84424 47.37588 35882 ft 477 kts 337°
2026-04-26 01:22 -2.78308 47.34972 35888 ft 477 kts 337°
2026-04-26 01:22 -2.72202 47.32362 35882 ft 477 kts 337°
2026-04-26 01:23 -2.66138 47.29769 35886 ft 476 kts 337°
2026-04-26 01:23 -2.60044 47.27164 35881 ft 476 kts 337°
2026-04-26 01:24 -2.53948 47.24559 35881 ft 476 kts 337°
2026-04-26 01:24 -2.47853 47.21954 35884 ft 476 kts 337°
2026-04-26 01:25 -2.41762 47.19351 35883 ft 476 kts 337°
2026-04-26 01:25 -2.35707 47.16764 35882 ft 476 kts 337°
2026-04-26 01:26 -2.29619 47.14162 35885 ft 476 kts 337°
2026-04-26 01:26 -2.23533 47.11562 35888 ft 476 kts 338°
2026-04-26 01:27 -2.17440 47.08959 35884 ft 477 kts 338°
2026-04-26 01:27 -2.11326 47.06348 35887 ft 477 kts 338°
2026-04-26 01:28 -2.05208 47.03735 35887 ft 478 kts 338°
2026-04-26 01:28 -1.99081 47.01118 35884 ft 479 kts 338°
2026-04-26 01:29 -1.92949 46.98499 35882 ft 479 kts 338°
2026-04-26 01:29 -1.86826 46.95885 35886 ft 479 kts 338°
2026-04-26 01:30 -1.80719 46.93277 35888 ft 480 kts 338°
2026-04-26 01:30 -1.74584 46.90658 35889 ft 479 kts 338°
2026-04-26 01:31 -1.68445 46.88037 35885 ft 479 kts 338°
2026-04-26 01:31 -1.62312 46.85419 35881 ft 479 kts 339°
2026-04-26 01:32 -1.57211 46.83241 35886 ft 479 kts 339°
2026-04-26 01:32 -1.51061 46.80617 35885 ft 480 kts 339°
2026-04-26 01:33 -1.44921 46.77996 35885 ft 480 kts 339°
2026-04-26 01:33 -1.38783 46.75376 35886 ft 480 kts 339°
2026-04-26 01:34 -1.32636 46.72752 35884 ft 480 kts 339°
2026-04-26 01:34 -1.26472 46.70122 35885 ft 481 kts 339°
2026-04-26 01:35 -1.20300 46.67487 35887 ft 482 kts 339°
2026-04-26 01:35 -1.14128 46.64854 35886 ft 482 kts 339°
2026-04-26 01:36 -1.07996 46.62240 35887 ft 483 kts 339°
2026-04-26 01:37 -0.98719 46.58292 35884 ft 483 kts 339°
2026-04-26 01:37 -0.92529 46.55656 35893 ft 483 kts 339°
2026-04-26 01:38 -0.86344 46.53022 35883 ft 483 kts 339°
2026-04-26 01:38 -0.80159 46.50388 35889 ft 482 kts 339°
2026-04-26 01:39 -0.73978 46.47756 35883 ft 482 kts 339°
2026-04-26 01:39 -0.67848 46.45145 35886 ft 481 kts 339°
2026-04-26 01:40 -0.61701 46.42528 35888 ft 480 kts 339°
2026-04-26 01:40 -0.55550 46.39908 35888 ft 480 kts 339°
2026-04-26 01:41 -0.49403 46.37291 35886 ft 480 kts 340°
2026-04-26 01:41 -0.43261 46.34676 35886 ft 479 kts 340°
2026-04-26 01:42 -0.37125 46.32063 35889 ft 479 kts 340°
2026-04-26 01:42 -0.31037 46.29470 35887 ft 479 kts 340°
2026-04-26 01:43 -0.24916 46.26863 35892 ft 479 kts 340°
2026-04-26 01:43 -0.18788 46.24254 35890 ft 479 kts 339°
2026-04-26 01:44 -0.12664 46.21594 35891 ft 479 kts 339°
2026-04-26 01:44 -0.06551 46.18903 35893 ft 480 kts 339°
2026-04-26 01:45 -0.00434 46.16214 35889 ft 480 kts 339°
2026-04-26 01:45 0.05691 46.13529 35886 ft 480 kts 339°
2026-04-26 01:46 0.11815 46.10846 35885 ft 481 kts 339°
2026-04-26 01:46 0.17943 46.08161 35888 ft 481 kts 339°
2026-04-26 01:47 0.24075 46.05474 35886 ft 481 kts 339°
2026-04-26 01:47 0.30164 46.02805 35888 ft 481 kts 339°
2026-04-26 01:48 0.36292 46.00120 35889 ft 481 kts 339°
2026-04-26 01:48 0.42420 45.97434 35891 ft 481 kts 339°
2026-04-26 01:49 0.48542 45.94751 35894 ft 480 kts 339°
2026-04-26 01:49 0.54683 45.92060 35891 ft 480 kts 339°
2026-04-26 01:50 0.60802 45.89407 35894 ft 480 kts 339°
2026-04-26 01:50 0.66950 45.86777 35894 ft 480 kts 339°
2026-04-26 01:51 0.73050 45.84164 35893 ft 479 kts 339°
2026-04-26 01:51 0.79185 45.81531 35894 ft 479 kts 339°
2026-04-26 01:52 0.85098 45.78991 35896 ft 479 kts 339°
2026-04-26 01:52 0.91236 45.76354 35900 ft 479 kts 339°
2026-04-26 01:53 0.97363 45.73721 35894 ft 479 kts 339°
2026-04-26 01:53 1.03495 45.71086 35900 ft 479 kts 339°
2026-04-26 01:54 1.09588 45.68469 35899 ft 479 kts 339°
2026-04-26 01:54 1.15720 45.65834 35897 ft 480 kts 339°
2026-04-26 01:55 1.21857 45.63197 35895 ft 480 kts 339°
2026-04-26 01:55 1.27993 45.60560 35894 ft 480 kts 339°
2026-04-26 01:56 1.34139 45.57919 35899 ft 481 kts 339°
2026-04-26 01:56 1.40286 45.55277 35890 ft 481 kts 338°
2026-04-26 01:57 1.46449 45.52628 35906 ft 482 kts 338°
2026-04-26 01:57 1.52582 45.49992 35904 ft 482 kts 338°
2026-04-26 01:58 1.58746 45.47343 35907 ft 483 kts 338°
2026-04-26 01:58 1.64925 45.44686 35897 ft 483 kts 338°
2026-04-26 01:59 1.71110 45.42027 35905 ft 484 kts 338°
2026-04-26 01:59 1.77310 45.39361 35908 ft 485 kts 338°
2026-04-26 02:00 1.83502 45.36699 35905 ft 485 kts 338°
2026-04-26 02:00 1.89713 45.34027 35914 ft 486 kts 338°
2026-04-26 02:01 1.95890 45.31370 35918 ft 486 kts 338°
2026-04-26 02:01 2.02093 45.28699 35912 ft 486 kts 338°
2026-04-26 02:02 2.08286 45.25968 35918 ft 486 kts 338°
2026-04-26 02:02 2.14472 45.23215 36152 ft 487 kts 338°
2026-04-26 02:02 2.17563 45.21840 36421 ft 485 kts 338°
2026-04-26 02:03 2.20647 45.20470 36670 ft 483 kts 338°
2026-04-26 02:03 2.23712 45.19110 36933 ft 482 kts 338°
2026-04-26 02:03 2.26777 45.17751 37188 ft 480 kts 338°
2026-04-26 02:03 2.29828 45.16400 37391 ft 480 kts 338°
2026-04-26 02:04 2.32875 45.15050 37600 ft 479 kts 338°
2026-04-26 02:04 2.35891 45.13714 37770 ft 479 kts 338°
2026-04-26 02:04 2.38943 45.12362 37853 ft 480 kts 338°
2026-04-26 02:05 2.45074 45.09646 37920 ft 482 kts 338°
2026-04-26 02:05 2.51186 45.06937 37921 ft 479 kts 338°
2026-04-26 02:06 2.57266 45.04242 37923 ft 477 kts 338°
2026-04-26 02:06 2.63330 45.01553 37923 ft 475 kts 338°
2026-04-26 02:07 2.69333 44.98892 37929 ft 474 kts 338°
2026-04-26 02:07 2.75367 44.96217 37927 ft 474 kts 338°
2026-04-26 02:08 2.81412 44.93537 37928 ft 475 kts 338°
2026-04-26 02:08 2.87469 44.90851 37928 ft 477 kts 338°
2026-04-26 02:09 2.93466 44.88191 37932 ft 478 kts 338°
2026-04-26 02:09 2.99563 44.85486 37930 ft 479 kts 338°
2026-04-26 02:10 3.05668 44.82778 37933 ft 480 kts 338°
2026-04-26 02:10 3.11783 44.80064 37932 ft 481 kts 338°
2026-04-26 02:11 3.17910 44.77345 37935 ft 481 kts 338°
2026-04-26 02:11 3.24040 44.74624 37937 ft 481 kts 338°
2026-04-26 02:12 3.30119 44.71926 37940 ft 481 kts 338°
2026-04-26 02:12 3.36236 44.69210 37939 ft 481 kts 338°
2026-04-26 02:13 3.42340 44.66500 37944 ft 480 kts 338°
2026-04-26 02:13 3.48445 44.63789 37947 ft 480 kts 338°
2026-04-26 02:14 3.54546 44.61080 37952 ft 479 kts 338°
2026-04-26 02:14 3.60648 44.58369 37954 ft 479 kts 338°
2026-04-26 02:15 3.66743 44.55662 37957 ft 480 kts 338°
2026-04-26 02:15 3.72862 44.52943 37957 ft 480 kts 338°
2026-04-26 02:16 3.78963 44.50231 37957 ft 480 kts 338°
2026-04-26 02:16 3.85042 44.47529 37955 ft 481 kts 338°
2026-04-26 02:17 3.91165 44.44808 37960 ft 482 kts 338°
2026-04-26 02:17 3.97306 44.42078 37960 ft 483 kts 338°
2026-04-26 02:18 4.03455 44.39343 37961 ft 483 kts 338°
2026-04-26 02:18 4.09615 44.36603 37964 ft 483 kts 338°
2026-04-26 02:19 4.15765 44.33868 37964 ft 483 kts 338°
2026-04-26 02:19 4.21910 44.31133 37964 ft 483 kts 338°
2026-04-26 02:20 4.28060 44.28397 37966 ft 483 kts 338°
2026-04-26 02:20 4.34163 44.25681 37967 ft 483 kts 338°
2026-04-26 02:21 4.40303 44.22947 37973 ft 483 kts 338°
2026-04-26 02:21 4.46442 44.20214 37973 ft 482 kts 338°
2026-04-26 02:22 4.52584 44.17479 37969 ft 482 kts 338°
2026-04-26 02:22 4.58719 44.14746 37971 ft 481 kts 338°
2026-04-26 02:23 4.64804 44.12036 37969 ft 481 kts 338°
2026-04-26 02:23 4.70931 44.09305 37967 ft 481 kts 338°
2026-04-26 02:24 4.77055 44.06576 37967 ft 481 kts 338°
2026-04-26 02:24 4.83180 44.03845 37964 ft 482 kts 338°
2026-04-26 02:25 4.89311 44.01111 37964 ft 482 kts 338°
2026-04-26 02:25 4.95441 43.98363 37957 ft 482 kts 338°
2026-04-26 02:26 5.01557 43.95580 37961 ft 482 kts 338°
2026-04-26 02:26 5.07627 43.92813 37956 ft 482 kts 338°
2026-04-26 02:27 5.13745 43.90028 37959 ft 482 kts 338°
2026-04-26 02:27 5.19866 43.87244 37955 ft 482 kts 338°
2026-04-26 02:28 5.24950 43.84931 37953 ft 482 kts 338°
2026-04-26 02:28 5.31059 43.82151 37956 ft 482 kts 338°
2026-04-26 02:29 5.37169 43.79371 37954 ft 482 kts 338°
2026-04-26 02:29 5.43271 43.76593 37957 ft 482 kts 338°
2026-04-26 02:30 5.49377 43.73813 37961 ft 481 kts 338°
2026-04-26 02:30 5.55478 43.71034 37951 ft 481 kts 338°
2026-04-26 02:31 5.61572 43.68257 37957 ft 481 kts 338°
2026-04-26 02:31 5.67670 43.65478 37948 ft 481 kts 338°
2026-04-26 02:32 5.73767 43.62709 37949 ft 481 kts 338°
2026-04-26 02:32 5.79831 43.59958 37945 ft 481 kts 338°
2026-04-26 02:33 5.85942 43.57184 37941 ft 481 kts 338°
2026-04-26 02:33 5.92038 43.54415 37943 ft 481 kts 338°
2026-04-26 02:34 5.98142 43.51640 37941 ft 481 kts 338°
2026-04-26 02:34 6.04256 43.48861 37940 ft 481 kts 338°
2026-04-26 02:35 6.10324 43.46102 37944 ft 481 kts 338°
2026-04-26 02:35 6.16433 43.43324 37939 ft 482 kts 338°
2026-04-26 02:36 6.22539 43.40546 37938 ft 482 kts 338°
2026-04-26 02:36 6.28642 43.37769 37937 ft 482 kts 338°
2026-04-26 02:37 6.34753 43.34987 37940 ft 482 kts 338°
2026-04-26 02:37 6.40857 43.32208 37941 ft 482 kts 337°
2026-04-26 02:38 6.46960 43.29429 37945 ft 482 kts 337°
2026-04-26 02:38 6.53068 43.26647 37944 ft 482 kts 337°
2026-04-26 02:39 6.59137 43.23881 37956 ft 481 kts 337°
2026-04-26 02:39 6.65245 43.21097 37953 ft 482 kts 337°
2026-04-26 02:40 6.71349 43.18315 37960 ft 482 kts 337°
2026-04-26 02:40 6.77451 43.15531 37965 ft 482 kts 337°
2026-04-26 02:41 6.83555 43.12747 37965 ft 482 kts 337°
2026-04-26 02:41 6.89664 43.09959 37971 ft 482 kts 337°
2026-04-26 02:42 6.95777 43.07169 37975 ft 482 kts 337°
2026-04-26 02:42 7.01882 43.04387 37969 ft 482 kts 337°
2026-04-26 02:43 7.11052 43.00219 37974 ft 481 kts 337°
2026-04-26 02:43 7.17124 42.97456 37978 ft 481 kts 337°
2026-04-26 02:44 7.23242 42.94670 37984 ft 481 kts 337°
2026-04-26 02:44 7.29348 42.91889 37984 ft 481 kts 337°
2026-04-26 02:45 7.35445 42.89111 37988 ft 481 kts 337°
2026-04-26 02:45 7.41548 42.86329 37989 ft 481 kts 337°
2026-04-26 02:46 7.47644 42.83550 37988 ft 481 kts 337°
2026-04-26 02:46 7.53700 42.80788 37989 ft 480 kts 337°
2026-04-26 02:47 7.59791 42.78009 37988 ft 480 kts 337°
2026-04-26 02:47 7.65872 42.75234 37987 ft 480 kts 337°
2026-04-26 02:48 7.71950 42.72460 37991 ft 479 kts 337°
2026-04-26 02:48 7.78031 42.69683 37991 ft 479 kts 337°
2026-04-26 02:49 7.84112 42.66905 37995 ft 479 kts 337°
2026-04-26 02:49 7.90181 42.64132 37994 ft 478 kts 337°
2026-04-26 02:50 7.96244 42.61361 38005 ft 478 kts 337°
2026-04-26 02:50 8.02269 42.58606 38002 ft 478 kts 337°
2026-04-26 02:51 8.08331 42.55833 38014 ft 478 kts 337°
2026-04-26 02:51 8.14387 42.53061 38009 ft 478 kts 337°
2026-04-26 02:52 8.20446 42.50288 38020 ft 478 kts 337°
2026-04-26 02:52 8.26515 42.47510 38018 ft 478 kts 337°
2026-04-26 02:53 8.32579 42.44736 38019 ft 478 kts 337°
2026-04-26 02:53 8.38644 42.41959 38019 ft 478 kts 337°
2026-04-26 02:54 8.44702 42.39186 38030 ft 478 kts 337°
2026-04-26 02:54 8.50764 42.36422 38022 ft 477 kts 337°
2026-04-26 02:55 8.56782 42.33679 38029 ft 477 kts 337°
2026-04-26 02:55 8.62822 42.30923 38032 ft 476 kts 337°
2026-04-26 02:56 8.68864 42.28165 38042 ft 476 kts 337°
2026-04-26 02:56 8.74889 42.25412 38040 ft 475 kts 337°
2026-04-26 02:57 8.80913 42.22659 38046 ft 475 kts 337°
2026-04-26 02:57 8.86945 42.19902 38044 ft 475 kts 337°
2026-04-26 02:58 8.92973 42.17145 38052 ft 475 kts 336°
2026-04-26 02:58 8.98986 42.14395 38059 ft 475 kts 336°
2026-04-26 02:59 9.05017 42.11635 38060 ft 475 kts 336°
2026-04-26 02:59 9.11036 42.08879 38077 ft 475 kts 336°
2026-04-26 03:00 9.17064 42.06119 38075 ft 475 kts 336°
2026-04-26 03:00 9.23073 42.03366 38074 ft 475 kts 336°
2026-04-26 03:01 9.29091 42.00607 38071 ft 475 kts 336°
2026-04-26 03:01 9.35115 41.97845 38071 ft 475 kts 336°
2026-04-26 03:02 9.41104 41.95098 38072 ft 475 kts 336°
2026-04-26 03:02 9.47126 41.92335 38051 ft 475 kts 336°
2026-04-26 03:03 9.53156 41.89567 38056 ft 476 kts 336°
2026-04-26 03:03 9.59201 41.86790 38028 ft 476 kts 336°
2026-04-26 03:04 9.65249 41.84008 38023 ft 477 kts 336°
2026-04-26 03:04 9.71215 41.81060 38002 ft 477 kts 334°
2026-04-26 03:05 9.77108 41.78041 38005 ft 478 kts 334°
2026-04-26 03:05 9.83047 41.75013 37981 ft 478 kts 334°
2026-04-26 03:06 9.88999 41.72002 37975 ft 478 kts 334°
2026-04-26 03:06 9.94955 41.68997 37974 ft 478 kts 334°
2026-04-26 03:07 10.00908 41.65994 37975 ft 478 kts 334°
2026-04-26 03:07 10.06869 41.62985 37968 ft 477 kts 334°
2026-04-26 03:08 10.12813 41.59982 37974 ft 477 kts 334°
2026-04-26 03:08 10.18759 41.56976 37967 ft 477 kts 334°
2026-04-26 03:09 10.24708 41.53968 37972 ft 477 kts 334°
2026-04-26 03:09 10.30644 41.50965 37969 ft 477 kts 334°
2026-04-26 03:10 10.36578 41.47962 37971 ft 476 kts 334°
2026-04-26 03:10 10.42505 41.44961 37973 ft 476 kts 334°
2026-04-26 03:11 10.48397 41.41977 37971 ft 476 kts 334°
2026-04-26 03:11 10.54316 41.38978 37963 ft 475 kts 334°
2026-04-26 03:12 10.60235 41.35977 37967 ft 475 kts 334°
2026-04-26 03:12 10.65162 41.33479 37971 ft 475 kts 334°
2026-04-26 03:13 10.71073 41.30480 37965 ft 475 kts 334°
2026-04-26 03:13 10.76987 41.27478 37963 ft 475 kts 334°
2026-04-26 03:14 10.82906 41.24472 37964 ft 474 kts 334°
2026-04-26 03:14 10.88811 41.21472 37958 ft 474 kts 334°
2026-04-26 03:15 10.94699 41.18480 37957 ft 473 kts 334°
2026-04-26 03:15 11.00598 41.15480 37959 ft 473 kts 334°
2026-04-26 03:16 11.06477 41.12489 37955 ft 472 kts 334°
2026-04-26 03:16 11.12320 41.09516 37953 ft 472 kts 334°
2026-04-26 03:17 11.18194 41.06525 37949 ft 472 kts 334°
2026-04-26 03:17 11.24075 41.03529 37949 ft 472 kts 334°
2026-04-26 03:18 11.29956 41.00532 37947 ft 472 kts 334°
2026-04-26 03:18 11.35833 40.97536 37945 ft 472 kts 334°
2026-04-26 03:19 11.41714 40.94536 37947 ft 472 kts 334°
2026-04-26 03:19 11.47581 40.91541 37943 ft 472 kts 334°
2026-04-26 03:20 11.53420 40.88560 37950 ft 472 kts 334°
2026-04-26 03:20 11.59289 40.85562 37947 ft 472 kts 334°
2026-04-26 03:21 11.65169 40.82557 37950 ft 472 kts 334°
2026-04-26 03:21 11.71039 40.79556 37950 ft 472 kts 334°
2026-04-26 03:22 11.76912 40.76551 37951 ft 472 kts 334°
2026-04-26 03:22 11.82793 40.73541 37950 ft 473 kts 334°
2026-04-26 03:23 11.88639 40.70548 37950 ft 473 kts 334°
2026-04-26 03:23 11.94521 40.67535 37949 ft 473 kts 334°
2026-04-26 03:24 12.00394 40.64524 37951 ft 473 kts 334°
2026-04-26 03:24 12.06276 40.61508 37952 ft 473 kts 334°
2026-04-26 03:25 12.12158 40.58490 37948 ft 473 kts 334°
2026-04-26 03:25 12.18032 40.55474 37949 ft 473 kts 334°
2026-04-26 03:26 12.23912 40.52455 37946 ft 473 kts 334°
2026-04-26 03:26 12.29793 40.49433 37946 ft 473 kts 334°
2026-04-26 03:27 12.35631 40.46430 37946 ft 472 kts 334°
2026-04-26 03:27 12.41503 40.43410 37940 ft 472 kts 334°
2026-04-26 03:28 12.47274 40.40169 37931 ft 474 kts 326°
2026-04-26 03:28 12.52639 40.36229 37926 ft 474 kts 325°
2026-04-26 03:29 12.57975 40.32261 37932 ft 474 kts 325°
2026-04-26 03:29 12.63292 40.28336 37940 ft 473 kts 325°
2026-04-26 03:30 12.68647 40.24402 37941 ft 473 kts 326°
2026-04-26 03:30 12.74002 40.20472 37949 ft 474 kts 326°
2026-04-26 03:31 12.79365 40.16533 37949 ft 474 kts 325°
2026-04-26 03:31 12.84691 40.12619 37954 ft 474 kts 325°
2026-04-26 03:32 12.90041 40.08683 37963 ft 474 kts 325°
2026-04-26 03:32 12.95398 40.04741 37959 ft 474 kts 325°
2026-04-26 03:33 13.00766 40.00789 37984 ft 474 kts 325°
2026-04-26 03:33 13.06129 39.96838 37976 ft 474 kts 325°
2026-04-26 03:34 13.11495 39.92882 38011 ft 475 kts 325°
2026-04-26 03:34 13.16857 39.88928 38003 ft 475 kts 325°
2026-04-26 03:35 13.22228 39.84964 38027 ft 475 kts 325°
2026-04-26 03:35 13.27589 39.81006 38021 ft 475 kts 325°
2026-04-26 03:36 13.32919 39.77069 38026 ft 475 kts 325°
2026-04-26 03:36 13.38289 39.73099 38043 ft 475 kts 325°
2026-04-26 03:37 13.43660 39.69127 38049 ft 476 kts 325°
2026-04-26 03:37 13.49033 39.65152 38066 ft 476 kts 325°
2026-04-26 03:38 13.54414 39.61167 38071 ft 477 kts 325°
2026-04-26 03:38 13.59791 39.57184 38084 ft 477 kts 324°
2026-04-26 03:39 13.65175 39.53193 38086 ft 477 kts 324°
2026-04-26 03:39 13.70564 39.49195 38086 ft 478 kts 324°
2026-04-26 03:40 13.75926 39.45216 38080 ft 478 kts 324°
2026-04-26 03:40 13.81326 39.41207 38086 ft 478 kts 324°
2026-04-26 03:41 13.86706 39.37210 38080 ft 478 kts 324°
2026-04-26 03:41 13.92097 39.33203 38092 ft 477 kts 324°
2026-04-26 03:42 13.97469 39.29206 38071 ft 476 kts 324°
2026-04-26 03:42 14.02839 39.25209 38070 ft 475 kts 324°
2026-04-26 03:43 14.08199 39.21217 38062 ft 475 kts 324°
2026-04-26 03:43 14.13551 39.17229 38062 ft 474 kts 324°
2026-04-26 03:44 14.18890 39.13248 38065 ft 474 kts 324°
2026-04-26 03:44 14.24233 39.09262 38054 ft 474 kts 324°
2026-04-26 03:45 14.29544 39.05297 38043 ft 474 kts 324°
2026-04-26 03:45 14.34898 39.01297 38038 ft 475 kts 324°
2026-04-26 03:46 14.40254 38.97293 38039 ft 475 kts 324°
2026-04-26 03:47 14.48464 38.91585 38045 ft 475 kts 336°
2026-04-26 03:47 14.54847 38.89893 38002 ft 477 kts 355°
2026-04-26 03:48 14.61499 38.89899 38019 ft 478 kts 360°
2026-04-26 03:48 14.68154 38.89994 38036 ft 480 kts 359°
2026-04-26 03:49 14.74854 38.90035 38036 ft 481 kts 359°
2026-04-26 03:49 14.81570 38.90045 38029 ft 482 kts 359°
2026-04-26 03:50 14.88243 38.90049 38034 ft 483 kts 359°
2026-04-26 03:50 14.94961 38.90056 38030 ft 483 kts 359°
2026-04-26 03:51 15.01675 38.90065 38033 ft 482 kts 359°
2026-04-26 03:51 15.08370 38.90074 38035 ft 481 kts 359°
2026-04-26 03:52 15.15070 38.90083 38037 ft 481 kts 358°
2026-04-26 03:52 15.21761 38.90091 38029 ft 480 kts 358°
2026-04-26 03:53 15.28446 38.90100 38029 ft 480 kts 358°
2026-04-26 03:53 15.35131 38.90260 38016 ft 481 kts
2026-04-26 03:54 15.41811 38.90539 38016 ft 481 kts
2026-04-26 03:54 15.48504 38.90809 38012 ft 481 kts
2026-04-26 03:55 15.55153 38.91055 37987 ft 482 kts
2026-04-26 03:55 15.61859 38.91294 37987 ft 482 kts 360°
2026-04-26 03:56 15.68555 38.91531 37976 ft 482 kts 360°
2026-04-26 03:56 15.75261 38.91769 37984 ft 482 kts 360°
2026-04-26 03:57 15.81964 38.92009 37970 ft 483 kts 360°
2026-04-26 03:57 15.88686 38.92249 37953 ft 483 kts 360°
2026-04-26 03:58 15.95416 38.92489 37951 ft 484 kts 359°
2026-04-26 03:58 16.02157 38.92731 37947 ft 484 kts 359°
2026-04-26 03:59 16.08845 38.92971 37934 ft 484 kts 359°
2026-04-26 03:59 16.14493 38.93173 37940 ft 484 kts 359°
2026-04-26 04:00 16.21219 38.93414 37930 ft 484 kts 359°
2026-04-26 04:00 16.27904 38.93654 37933 ft 484 kts 359°
2026-04-26 04:01 16.34640 38.93896 37911 ft 483 kts 359°
2026-04-26 04:01 16.41361 38.94137 37908 ft 483 kts 359°
2026-04-26 04:02 16.48089 38.94379 37911 ft 483 kts 359°
2026-04-26 04:02 16.54813 38.94621 37902 ft 483 kts 359°
2026-04-26 04:03 16.61537 38.94863 37907 ft 483 kts 359°
2026-04-26 04:03 16.68218 38.95104 37906 ft 483 kts 359°
2026-04-26 04:04 16.74941 38.95347 37910 ft 484 kts 359°
2026-04-26 04:04 16.81680 38.95590 37904 ft 484 kts 359°
2026-04-26 04:05 16.88414 38.95833 37907 ft 484 kts 359°
2026-04-26 04:05 16.95150 38.96076 37903 ft 484 kts 359°
2026-04-26 04:06 17.01899 38.96320 37903 ft 485 kts 359°
2026-04-26 04:06 17.08643 38.96564 37905 ft 485 kts 359°
2026-04-26 04:07 17.15356 38.96808 37904 ft 485 kts 359°
2026-04-26 04:07 17.22098 38.97052 37904 ft 485 kts 359°
2026-04-26 04:08 17.28857 38.97297 37902 ft 485 kts 359°
2026-04-26 04:08 17.35610 38.97542 37901 ft 485 kts 359°
2026-04-26 04:09 17.42359 38.97787 37903 ft 485 kts 359°
2026-04-26 04:09 17.49115 38.98033 37898 ft 485 kts 359°
2026-04-26 04:10 17.55867 38.98278 37901 ft 485 kts 358°
2026-04-26 04:10 17.62577 38.98522 37898 ft 485 kts 358°
2026-04-26 04:11 17.69330 38.98768 37900 ft 485 kts 358°
2026-04-26 04:11 17.76087 38.99014 37899 ft 485 kts 358°
2026-04-26 04:12 17.82833 38.99259 37907 ft 485 kts 358°
2026-04-26 04:12 17.89586 38.99506 37898 ft 485 kts 358°
2026-04-26 04:13 17.96333 38.99752 37899 ft 485 kts 358°
2026-04-26 04:13 18.03082 38.99998 37896 ft 485 kts 358°
2026-04-26 04:14 18.09832 39.00245 37905 ft 485 kts 358°
2026-04-26 04:14 18.16573 39.00492 37899 ft 485 kts 358°
2026-04-26 04:15 18.23285 39.00817 37903 ft 485 kts 359°
2026-04-26 04:15 18.30026 39.01210 37903 ft 485 kts 359°
2026-04-26 04:16 18.36772 39.01598 37909 ft 485 kts 359°
2026-04-26 04:16 18.43521 39.01974 37903 ft 485 kts 359°
2026-04-26 04:17 18.50273 39.02346 37901 ft 485 kts 359°
2026-04-26 04:17 18.57026 39.02718 37897 ft 485 kts 359°
2026-04-26 04:18 18.63773 39.03091 37913 ft 485 kts 359°
2026-04-26 04:18 18.70525 39.03464 37898 ft 486 kts 359°
2026-04-26 04:19 18.77275 39.03838 37908 ft 486 kts 359°
2026-04-26 04:19 18.83993 39.04211 37905 ft 486 kts 359°
2026-04-26 04:20 18.90755 39.04586 37911 ft 486 kts 358°
2026-04-26 04:20 18.97521 39.04961 37898 ft 487 kts 358°
2026-04-26 04:21 19.04302 39.05338 37903 ft 487 kts 358°
2026-04-26 04:21 19.11056 39.05512 37887 ft 483 kts 351°
2026-04-26 04:22 19.17668 39.04462 37895 ft 476 kts 341°
2026-04-26 04:22 19.24008 39.02630 37911 ft 476 kts 340°
2026-04-26 04:23 19.30395 39.00759 37902 ft 476 kts 340°
2026-04-26 04:23 19.36791 38.98914 37919 ft 477 kts 340°
2026-04-26 04:24 19.43205 38.97081 37915 ft 477 kts 340°
2026-04-26 04:24 19.49622 38.95251 37910 ft 477 kts 340°
2026-04-26 04:25 19.56036 38.93419 37912 ft 478 kts 340°
2026-04-26 04:25 19.62460 38.91582 37913 ft 478 kts 340°
2026-04-26 04:26 19.68839 38.89757 37913 ft 478 kts 340°
2026-04-26 04:26 19.75260 38.87917 37910 ft 478 kts 340°
2026-04-26 04:27 19.81681 38.86076 37911 ft 478 kts 340°
2026-04-26 04:27 19.88117 38.84229 37910 ft 478 kts 340°
2026-04-26 04:28 19.94554 38.82380 37912 ft 478 kts 340°
2026-04-26 04:28 20.00937 38.80546 37911 ft 478 kts 340°
2026-04-26 04:29 20.07363 38.78697 37908 ft 478 kts 340°
2026-04-26 04:29 20.13776 38.76851 37911 ft 477 kts 340°
2026-04-26 04:30 20.20192 38.75002 37912 ft 477 kts 340°
2026-04-26 04:30 20.26549 38.73168 37916 ft 476 kts 340°
2026-04-26 04:31 20.32954 38.71319 37916 ft 476 kts 339°
2026-04-26 04:31 20.39352 38.69470 37912 ft 476 kts 339°
2026-04-26 04:32 20.45741 38.67623 37910 ft 476 kts 339°
2026-04-26 04:32 20.52139 38.65771 37922 ft 476 kts 339°
2026-04-26 04:33 20.58536 38.63918 37923 ft 476 kts 339°
2026-04-26 04:33 20.64926 38.62065 37914 ft 476 kts 339°
2026-04-26 04:34 20.71308 38.60213 37913 ft 475 kts 339°
2026-04-26 04:34 20.77694 38.58358 37916 ft 475 kts 339°
2026-04-26 04:35 20.84198 38.57053 37935 ft 486 kts 357°
2026-04-26 04:35 20.87537 38.57585 37934 ft 498 kts 10°
2026-04-26 04:35 20.90787 38.58976 37908 ft 510 kts 25°
2026-04-26 04:36 20.96817 38.63035 37917 ft 514 kts 27°
2026-04-26 04:36 21.02861 38.67147 37918 ft 516 kts 27°
2026-04-26 04:37 21.08972 38.71207 37916 ft 518 kts 26°
2026-04-26 04:37 21.15143 38.75260 37899 ft 520 kts 26°
2026-04-26 04:38 21.21302 38.79305 37898 ft 520 kts 26°
2026-04-26 04:38 21.27462 38.83362 37894 ft 519 kts 26°
2026-04-26 04:39 21.33622 38.87425 37885 ft 519 kts 26°
2026-04-26 04:39 21.39738 38.91463 37890 ft 518 kts 26°
2026-04-26 04:40 21.45872 38.95517 37883 ft 518 kts 26°
2026-04-26 04:40 21.52009 38.99577 37887 ft 517 kts 26°
2026-04-26 04:41 21.58130 39.03630 37882 ft 517 kts 26°
2026-04-26 04:41 21.64262 39.07694 37886 ft 517 kts 26°
2026-04-26 04:41 21.67373 39.09578 37868 ft 507 kts 15°
2026-04-26 04:42 21.70701 39.10539 37890 ft 488 kts 358°
2026-04-26 04:42 21.74055 39.10555 37902 ft 478 kts 346°
2026-04-26 04:42 21.77285 39.09828 37881 ft 468 kts 333°
2026-04-26 04:43 21.83260 39.07142 37875 ft 468 kts 330°
2026-04-26 04:43 21.89273 39.04430 37893 ft 474 kts 331°
2026-04-26 04:44 21.95334 39.01760 37866 ft 465 kts 331°
2026-04-26 04:44 22.01320 38.99143 37902 ft 463 kts 331°
2026-04-26 04:45 22.07291 38.96526 37885 ft 463 kts 331°
2026-04-26 04:45 22.12246 38.94352 37887 ft 463 kts 331°
2026-04-26 04:46 22.18210 38.91733 37889 ft 463 kts 331°
2026-04-26 04:46 22.24187 38.89106 37892 ft 464 kts 331°
2026-04-26 04:47 22.30172 38.86473 37891 ft 465 kts 331°
2026-04-26 04:47 22.36175 38.83830 37896 ft 465 kts 331°
2026-04-26 04:48 22.45180 38.79860 37896 ft 466 kts 331°
2026-04-26 04:48 22.51192 38.77207 37896 ft 466 kts 331°
2026-04-26 04:49 22.57207 38.74550 37898 ft 467 kts 331°
2026-04-26 04:49 22.63210 38.71896 37896 ft 467 kts 330°
2026-04-26 04:50 22.69181 38.69252 37893 ft 466 kts 330°
2026-04-26 04:50 22.75185 38.66588 37901 ft 465 kts 330°
2026-04-26 04:51 22.81175 38.63928 37906 ft 465 kts 330°
2026-04-26 04:51 22.87150 38.61271 37907 ft 464 kts 330°
2026-04-26 04:52 22.93130 38.58610 37915 ft 464 kts 330°
2026-04-26 04:52 22.99100 38.55951 37909 ft 463 kts 330°
2026-04-26 04:53 23.05069 38.53290 37913 ft 462 kts 330°
2026-04-26 04:53 23.10977 38.50653 37911 ft 462 kts 330°
2026-04-26 04:54 23.16912 38.48001 37939 ft 461 kts 330°
2026-04-26 04:54 23.22851 38.45346 37916 ft 461 kts 330°
2026-04-26 04:55 23.28780 38.42692 37921 ft 461 kts 330°
2026-04-26 04:55 23.34719 38.40030 37924 ft 461 kts 330°
2026-04-26 04:56 23.40647 38.37372 37923 ft 461 kts 330°
2026-04-26 04:56 23.46577 38.34709 37960 ft 461 kts 329°
2026-04-26 04:57 23.52521 38.32038 37929 ft 462 kts 329°
2026-04-26 04:57 23.58458 38.29367 37922 ft 462 kts 329°
2026-04-26 04:58 23.64395 38.26694 37924 ft 462 kts 329°
2026-04-26 04:58 23.70339 38.24024 37923 ft 462 kts 329°
2026-04-26 04:59 23.76245 38.21375 37943 ft 462 kts 329°
2026-04-26 04:59 23.82204 38.18697 37935 ft 462 kts 329°
2026-04-26 05:00 23.88153 38.16019 37924 ft 462 kts 329°
2026-04-26 05:00 23.94096 38.13342 37889 ft 462 kts 329°
2026-04-26 05:01 24.00044 38.10659 37870 ft 462 kts 329°
2026-04-26 05:01 24.05950 38.07992 37876 ft 462 kts 329°
2026-04-26 05:02 24.11897 38.05305 37860 ft 461 kts 328°
2026-04-26 05:02 24.17510 38.02113 37872 ft 448 kts 318°
2026-04-26 05:03 24.22624 37.98245 37856 ft 446 kts 317°
2026-04-26 05:03 24.27733 37.94371 37864 ft 446 kts 317°
2026-04-26 05:04 24.32849 37.90513 37864 ft 447 kts 317°
2026-04-26 05:04 24.37979 37.86653 37878 ft 447 kts 317°
2026-04-26 05:05 24.43077 37.82817 37881 ft 447 kts 317°
2026-04-26 05:05 24.48204 37.78954 37897 ft 447 kts 317°
2026-04-26 05:06 24.53333 37.75087 37893 ft 446 kts 317°
2026-04-26 05:06 24.58448 37.71225 37906 ft 446 kts 317°
2026-04-26 05:07 24.63558 37.67363 37918 ft 446 kts 317°
2026-04-26 05:07 24.68667 37.63497 37916 ft 446 kts 316°
2026-04-26 05:08 24.73752 37.59645 37918 ft 446 kts 316°
2026-04-26 05:08 24.78857 37.55776 37905 ft 445 kts 316°
2026-04-26 05:09 24.83947 37.51916 37924 ft 444 kts 316°
2026-04-26 05:09 24.89035 37.48047 37928 ft 444 kts 316°
2026-04-26 05:10 24.94118 37.44181 37931 ft 444 kts 316°
2026-04-26 05:10 24.99207 37.40307 37969 ft 444 kts 316°
2026-04-26 05:11 25.04294 37.36432 37943 ft 444 kts 316°
2026-04-26 05:11 25.09379 37.32553 37934 ft 444 kts 316°
2026-04-26 05:12 25.14456 37.28676 37969 ft 444 kts 316°
2026-04-26 05:12 25.17000 37.26730 38158 ft 444 kts 316°
2026-04-26 05:12 25.19536 37.24792 38420 ft 443 kts 316°
2026-04-26 05:13 25.22064 37.22859 38721 ft 441 kts 316°
2026-04-26 05:13 25.24555 37.20954 38919 ft 440 kts 316°
2026-04-26 05:13 25.27072 37.19026 39113 ft 439 kts 315°
2026-04-26 05:13 25.29580 37.17102 39268 ft 439 kts 315°
2026-04-26 05:14 25.32091 37.15174 39427 ft 439 kts 315°
2026-04-26 05:14 25.34600 37.13246 39581 ft 439 kts 315°
2026-04-26 05:14 25.37107 37.11319 39738 ft 439 kts 315°
2026-04-26 05:14 25.39615 37.09391 39837 ft 439 kts 315°
2026-04-26 05:15 25.44666 37.05517 39912 ft 441 kts 316°
2026-04-26 05:15 25.49705 37.01659 39951 ft 440 kts 316°
2026-04-26 05:16 25.54741 36.97797 39945 ft 440 kts 315°
2026-04-26 05:16 25.59737 36.93958 39938 ft 439 kts 315°
2026-04-26 05:17 25.64757 36.90095 39944 ft 439 kts 315°
2026-04-26 05:17 25.69763 36.86241 39941 ft 438 kts 315°
2026-04-26 05:18 25.74765 36.82381 39938 ft 437 kts 315°
2026-04-26 05:18 25.79746 36.78519 39916 ft 437 kts 315°
2026-04-26 05:19 25.84730 36.74650 39948 ft 436 kts 315°
2026-04-26 05:19 25.89695 36.70791 39925 ft 436 kts 315°
2026-04-26 05:20 25.94637 36.66948 39923 ft 436 kts 315°
2026-04-26 05:20 25.99604 36.63082 39933 ft 436 kts 314°
2026-04-26 05:21 26.04568 36.59213 39921 ft 435 kts 314°
2026-04-26 05:21 26.09522 36.55348 39937 ft 435 kts 314°
2026-04-26 05:22 26.14470 36.51483 39938 ft 434 kts 314°
2026-04-26 05:22 26.19178 36.47370 39940 ft 424 kts 307°
2026-04-26 05:23 26.23247 36.42697 39941 ft 420 kts 304°
2026-04-26 05:23 26.27300 36.38003 39938 ft 420 kts 304°
2026-04-26 05:24 26.31338 36.33342 39940 ft 422 kts 304°
2026-04-26 05:24 26.35419 36.28635 39917 ft 422 kts 304°
2026-04-26 05:25 26.39501 36.23924 39926 ft 422 kts 304°
2026-04-26 05:25 26.43582 36.19208 39921 ft 422 kts 304°
2026-04-26 05:26 26.47657 36.14494 39917 ft 422 kts 304°
2026-04-26 05:26 26.51729 36.09778 39919 ft 422 kts 304°
2026-04-26 05:27 26.55796 36.05061 39920 ft 421 kts 304°
2026-04-26 05:27 26.59861 36.00342 39919 ft 421 kts 304°
2026-04-26 05:28 26.63925 35.95619 39919 ft 421 kts 304°
2026-04-26 05:28 26.67986 35.90894 39935 ft 422 kts 304°
2026-04-26 05:29 26.72047 35.86163 39926 ft 422 kts 304°
2026-04-26 05:29 26.76107 35.81429 39922 ft 421 kts 304°
2026-04-26 05:30 26.80136 35.76728 39923 ft 421 kts 304°
2026-04-26 05:30 26.84190 35.71994 39929 ft 421 kts 304°
2026-04-26 05:31 26.88247 35.67248 39925 ft 421 kts 304°
2026-04-26 05:31 26.92294 35.62510 39923 ft 421 kts 304°
2026-04-26 05:32 26.95660 35.58565 39930 ft 421 kts 304°
2026-04-26 05:32 26.99703 35.53820 39931 ft 421 kts 304°
2026-04-26 05:33 27.03750 35.49066 39974 ft 421 kts 304°
2026-04-26 05:33 27.07812 35.44289 39941 ft 422 kts 304°
2026-04-26 05:34 27.11856 35.39527 39929 ft 422 kts 304°
2026-04-26 05:34 27.15907 35.34753 39932 ft 422 kts 304°
2026-04-26 05:35 27.19949 35.29984 39928 ft 421 kts 304°
2026-04-26 05:35 27.23988 35.25213 39928 ft 421 kts 303°
2026-04-26 05:36 27.28017 35.20447 39931 ft 421 kts 303°
2026-04-26 05:36 27.32027 35.15699 39936 ft 421 kts 303°
2026-04-26 05:37 27.36061 35.10917 39930 ft 421 kts 303°
2026-04-26 05:37 27.40092 35.06133 39928 ft 421 kts 303°
2026-04-26 05:38 27.44127 35.01338 39924 ft 422 kts 303°
2026-04-26 05:38 27.48164 34.96537 39936 ft 422 kts 303°
2026-04-26 05:39 27.52240 34.91774 39919 ft 424 kts 306°
2026-04-26 05:39 27.56545 34.87212 39918 ft 425 kts 307°
2026-04-26 05:40 27.60868 34.82681 39906 ft 424 kts 306°
2026-04-26 05:40 27.65176 34.78139 39906 ft 423 kts 306°
2026-04-26 05:41 27.69442 34.73622 39907 ft 423 kts 306°
2026-04-26 05:41 27.73718 34.69085 39905 ft 422 kts 306°
2026-04-26 05:42 27.78007 34.64529 39918 ft 422 kts 306°
2026-04-26 05:42 27.82289 34.59976 39897 ft 422 kts 306°
2026-04-26 05:43 27.86532 34.55460 39887 ft 421 kts 306°
2026-04-26 05:43 27.90796 34.50916 39884 ft 421 kts 306°
2026-04-26 05:44 27.95051 34.46375 39898 ft 420 kts 306°
2026-04-26 05:44 27.99279 34.41829 39880 ft 417 kts 304°
2026-04-26 05:45 28.03011 34.36918 39879 ft 410 kts 299°
2026-04-26 05:45 28.06610 34.31907 39880 ft 410 kts 299°
2026-04-26 05:46 28.10222 34.26898 39883 ft 411 kts 300°
2026-04-26 05:46 28.13842 34.21878 39946 ft 411 kts 299°
2026-04-26 05:47 28.17468 34.16847 39932 ft 411 kts 299°
2026-04-26 05:47 28.21064 34.11855 39921 ft 411 kts 299°
2026-04-26 05:48 28.24676 34.06836 39952 ft 410 kts 299°
2026-04-26 05:48 28.28278 34.01819 39938 ft 408 kts 299°
2026-04-26 05:49 28.33646 33.94336 39954 ft 407 kts 299°
2026-04-26 05:50 28.37222 33.89338 39956 ft 410 kts 299°
2026-04-26 05:50 28.40825 33.84298 39947 ft 412 kts 299°
2026-04-26 05:51 28.44446 33.79228 39940 ft 413 kts 299°
2026-04-26 05:51 28.48055 33.74172 39931 ft 415 kts 299°
2026-04-26 05:52 28.51713 33.69041 39947 ft 415 kts 299°
2026-04-26 05:52 28.55326 33.63963 40005 ft 417 kts 299°
2026-04-26 05:53 28.59013 33.58776 39938 ft 420 kts 300°
2026-04-26 05:53 28.62660 33.53640 39941 ft 420 kts 299°
2026-04-26 05:54 28.66326 33.48480 39940 ft 418 kts 299°
2026-04-26 05:54 28.69976 33.43335 39932 ft 417 kts 299°
2026-04-26 05:55 28.73622 33.38190 39934 ft 416 kts 299°
2026-04-26 05:55 28.77245 33.33069 39933 ft 414 kts 299°
2026-04-26 05:56 28.80859 33.27953 39936 ft 413 kts 299°
2026-04-26 05:56 28.84441 33.22875 39941 ft 413 kts 299°
2026-04-26 05:57 28.88036 33.17773 39945 ft 413 kts 299°
2026-04-26 05:57 28.91642 33.12647 39955 ft 414 kts 299°
2026-04-26 05:58 28.95258 33.07502 39949 ft 416 kts 299°
2026-04-26 05:58 28.98892 33.02326 39949 ft 418 kts 299°
2026-04-26 05:59 29.02538 32.97126 39952 ft 420 kts 299°
2026-04-26 05:59 29.06191 32.91911 39954 ft 421 kts 299°
2026-04-26 06:00 29.09848 32.86685 39958 ft 421 kts 299°
2026-04-26 06:00 29.13507 32.81447 39960 ft 422 kts 299°
2026-04-26 06:01 29.17147 32.76230 39956 ft 422 kts 299°
2026-04-26 06:01 29.20806 32.70979 39962 ft 422 kts 299°
2026-04-26 06:02 29.24462 32.65726 39963 ft 421 kts 299°
2026-04-26 06:02 29.28111 32.60476 39980 ft 421 kts 299°
2026-04-26 06:03 29.31748 32.55201 39979 ft 421 kts 299°
2026-04-26 06:03 29.35369 32.49915 39983 ft 422 kts 299°
2026-04-26 06:04 29.39003 32.44604 39974 ft 424 kts 299°
2026-04-26 06:04 29.42642 32.39285 39975 ft 424 kts 299°
2026-04-26 06:05 29.46290 32.33948 40001 ft 424 kts 299°
2026-04-26 06:05 29.49935 32.28607 39994 ft 425 kts 299°
2026-04-26 06:06 29.53557 32.23294 39988 ft 425 kts 299°
2026-04-26 06:06 29.57204 32.17935 39988 ft 425 kts 299°
2026-04-26 06:07 29.60847 32.12577 39981 ft 425 kts 299°
2026-04-26 06:07 29.64485 32.07219 40025 ft 424 kts 299°
2026-04-26 06:08 29.68096 32.01892 40004 ft 425 kts 299°
2026-04-26 06:08 29.71732 31.96522 39995 ft 425 kts 299°
2026-04-26 06:09 29.75366 31.91148 40044 ft 425 kts 299°
2026-04-26 06:09 29.78999 31.85758 40002 ft 425 kts 298°
2026-04-26 06:10 29.82537 31.80312 39994 ft 424 kts 298°
2026-04-26 06:10 29.86046 31.74845 40000 ft 424 kts 298°
2026-04-26 06:11 29.89560 31.69383 39989 ft 424 kts 298°
2026-04-26 06:11 29.93007 31.64031 39991 ft 423 kts 298°
2026-04-26 06:12 29.96514 31.58580 39993 ft 423 kts 298°
2026-04-26 06:12 30.00024 31.53118 39993 ft 423 kts 298°
2026-04-26 06:13 30.03504 31.47694 39997 ft 424 kts 298°
2026-04-26 06:13 30.07029 31.42196 39995 ft 423 kts 298°
2026-04-26 06:14 30.10835 31.37000 39992 ft 432 kts 306°
2026-04-26 06:14 30.15263 31.32260 40041 ft 434 kts 308°
2026-04-26 06:15 30.19711 31.27525 39995 ft 433 kts 308°
2026-04-26 06:15 30.24120 31.22806 40013 ft 432 kts 307°
2026-04-26 06:16 30.28516 31.18083 39985 ft 430 kts 307°
2026-04-26 06:16 30.32150 31.14170 39979 ft 428 kts 307°
2026-04-26 06:17 30.36494 31.09486 39983 ft 426 kts 307°
2026-04-26 06:17 30.41538 31.04041 39982 ft 425 kts 307°
2026-04-26 06:18 30.45152 31.00133 39976 ft 424 kts 307°
2026-04-26 06:18 30.49446 30.95486 40049 ft 425 kts 307°
2026-04-26 06:19 30.53783 30.90782 39996 ft 429 kts 307°
2026-04-26 06:19 30.58154 30.86040 39991 ft 430 kts 307°
2026-04-26 06:20 30.62530 30.81288 39975 ft 431 kts 307°
2026-04-26 06:20 30.66915 30.76520 39972 ft 432 kts 307°
2026-04-26 06:21 30.71304 30.71740 39972 ft 433 kts 307°
2026-04-26 06:21 30.75696 30.66952 39989 ft 433 kts 307°
2026-04-26 06:22 30.80079 30.62166 39984 ft 432 kts 307°
2026-04-26 06:22 30.84435 30.57403 39995 ft 432 kts 307°
2026-04-26 06:23 30.88816 30.52605 39988 ft 432 kts 307°
2026-04-26 06:23 30.93201 30.47798 39981 ft 432 kts 307°
2026-04-26 06:24 30.97578 30.42993 39973 ft 432 kts 307°
2026-04-26 06:24 31.01961 30.38174 39987 ft 432 kts 307°
2026-04-26 06:25 31.06258 30.33288 39975 ft 425 kts 301°
2026-04-26 06:25 31.09442 30.27699 39977 ft 413 kts 292°
2026-04-26 06:26 31.11638 30.21601 39989 ft 405 kts 282°
2026-04-26 06:26 31.13312 30.15299 39971 ft 407 kts 282°
2026-04-26 06:27 31.15018 30.08971 39989 ft 410 kts 283°
2026-04-26 06:27 31.16755 30.02611 39976 ft 412 kts 283°
2026-04-26 06:28 31.19448 29.96656 39970 ft 428 kts 301°
2026-04-26 06:28 31.23810 29.91801 39964 ft 446 kts 319°
2026-04-26 06:29 31.29282 29.88343 39976 ft 451 kts 322°
2026-04-26 06:29 31.34876 29.84988 39976 ft 451 kts 322°
2026-04-26 06:30 31.40433 29.81578 39986 ft 451 kts 322°
2026-04-26 06:30 31.45972 29.78116 39981 ft 452 kts 322°
2026-04-26 06:31 31.51527 29.74624 39975 ft 454 kts 322°
2026-04-26 06:31 31.57101 29.71116 39972 ft 456 kts 322°
2026-04-26 06:32 31.62701 29.67591 39979 ft 458 kts 322°
2026-04-26 06:32 31.68328 29.64046 39970 ft 459 kts 322°
2026-04-26 06:33 31.73961 29.60491 39970 ft 459 kts 322°
2026-04-26 06:33 31.79589 29.56935 39967 ft 460 kts 322°
2026-04-26 06:34 31.85194 29.53387 39996 ft 461 kts 323°
2026-04-26 06:34 31.90880 29.49783 39974 ft 461 kts 323°
2026-04-26 06:35 31.96504 29.46214 39977 ft 462 kts 323°
2026-04-26 06:35 32.02189 29.42600 39966 ft 462 kts 323°
2026-04-26 06:36 32.07833 29.38994 39965 ft 461 kts 323°
2026-04-26 06:36 32.13479 29.35378 39967 ft 462 kts 324°
2026-04-26 06:37 32.19102 29.31776 39963 ft 462 kts 324°
2026-04-26 06:37 32.24753 29.28154 39962 ft 462 kts 324°
2026-04-26 06:38 32.30409 29.24530 39976 ft 462 kts 324°
2026-04-26 06:38 32.36073 29.20896 39961 ft 463 kts 324°
2026-04-26 06:39 32.41694 29.17285 39957 ft 462 kts 324°
2026-04-26 06:39 32.47350 29.13645 39948 ft 462 kts 324°
2026-04-26 06:40 32.52998 29.10004 39950 ft 462 kts 324°
2026-04-26 06:40 32.58644 29.06359 39947 ft 462 kts 324°
2026-04-26 06:41 32.64278 29.02716 39948 ft 461 kts 324°
2026-04-26 06:41 32.69912 28.99068 39947 ft 462 kts 324°
2026-04-26 06:42 32.75553 28.95410 39963 ft 462 kts 324°
2026-04-26 06:42 32.81202 28.91742 39944 ft 462 kts 325°
2026-04-26 06:43 32.86817 28.88091 39939 ft 462 kts 325°
2026-04-26 06:43 32.92462 28.84416 39937 ft 462 kts 325°
2026-04-26 06:44 32.98113 28.80730 39949 ft 463 kts 325°
2026-04-26 06:44 33.03771 28.77034 39942 ft 464 kts 325°
2026-04-26 06:45 33.09436 28.73328 39932 ft 465 kts 325°
2026-04-26 06:45 33.15114 28.69608 39931 ft 466 kts 325°
2026-04-26 06:46 33.20788 28.65886 39938 ft 466 kts 325°
2026-04-26 06:46 33.26479 28.62145 39944 ft 467 kts 326°
2026-04-26 06:47 33.32187 28.58390 39936 ft 469 kts 326°
2026-04-26 06:47 33.37902 28.54624 39933 ft 469 kts 326°
2026-04-26 06:48 33.43627 28.50846 39923 ft 470 kts 326°
2026-04-26 06:48 33.49321 28.47082 39926 ft 470 kts 326°
2026-04-26 06:49 33.55082 28.43268 39927 ft 470 kts 326°
2026-04-26 06:49 33.60770 28.39496 39922 ft 470 kts 326°
2026-04-26 06:50 33.66491 28.35697 39929 ft 470 kts 327°
2026-04-26 06:50 33.72210 28.31893 39921 ft 470 kts 327°
2026-04-26 06:51 33.77928 28.28084 39926 ft 470 kts 327°
2026-04-26 06:51 33.86500 28.22330 39927 ft 470 kts 327°
2026-04-26 06:52 33.92204 28.18471 39926 ft 470 kts 327°
2026-04-26 06:52 33.97915 28.14603 39924 ft 470 kts 327°
2026-04-26 06:53 34.03621 28.10735 39924 ft 470 kts 327°
2026-04-26 06:53 34.09289 28.06888 39943 ft 471 kts 327°
2026-04-26 06:54 34.15007 28.03001 39929 ft 472 kts 327°
2026-04-26 06:54 34.20731 27.99104 39923 ft 472 kts 327°
2026-04-26 06:55 34.26457 27.95199 39923 ft 472 kts 327°
2026-04-26 06:55 34.32189 27.91284 39923 ft 473 kts 327°
2026-04-26 06:56 34.37880 27.87390 39935 ft 473 kts 327°
2026-04-26 06:56 34.43620 27.83456 39928 ft 474 kts 327°
2026-04-26 06:57 34.49361 27.79515 39926 ft 474 kts 327°
2026-04-26 06:57 34.55111 27.75562 39927 ft 475 kts 327°
2026-04-26 06:58 34.60855 27.71597 39929 ft 475 kts 327°
2026-04-26 06:58 34.66594 27.67625 39931 ft 475 kts 327°
2026-04-26 06:59 34.72340 27.63641 39932 ft 476 kts 327°
2026-04-26 06:59 34.78086 27.59653 39932 ft 476 kts 327°
2026-04-26 07:00 34.83842 27.55651 39934 ft 476 kts 327°
2026-04-26 07:00 34.89585 27.51652 39935 ft 476 kts 327°
2026-04-26 07:01 34.95298 27.47666 39942 ft 476 kts 328°
2026-04-26 07:01 35.01060 27.43640 39937 ft 477 kts 328°
2026-04-26 07:02 35.06818 27.39611 39937 ft 477 kts 328°
2026-04-26 07:02 35.12586 27.35568 39940 ft 477 kts 328°
2026-04-26 07:03 35.18341 27.31527 39938 ft 477 kts 328°
2026-04-26 07:03 35.24099 27.27478 39937 ft 477 kts 328°
2026-04-26 07:04 35.29821 27.23446 39939 ft 477 kts 328°
2026-04-26 07:04 35.35574 27.19386 39940 ft 477 kts 328°
2026-04-26 07:05 35.40391 27.15982 39912 ft 477 kts 328°
2026-04-26 07:05 35.46314 27.12284 39923 ft 478 kts 334°
2026-04-26 07:06 35.52389 27.08913 39905 ft 479 kts 334°
2026-04-26 07:06 35.58422 27.05551 39926 ft 479 kts 334°
2026-04-26 07:07 35.64487 27.02127 39937 ft 479 kts 333°
2026-04-26 07:07 35.70550 26.98688 39945 ft 480 kts 333°
2026-04-26 07:08 35.76610 26.95244 39946 ft 480 kts 334°
2026-04-26 07:08 35.82680 26.91793 39951 ft 480 kts 334°
2026-04-26 07:09 35.88754 26.88333 39947 ft 480 kts 334°
2026-04-26 07:09 35.94813 26.84871 39954 ft 479 kts 334°
2026-04-26 07:11 36.09872 26.76240 39949 ft 476 kts 334°
2026-04-26 07:11 36.15881 26.72786 39951 ft 475 kts 334°
2026-04-26 07:12 36.21874 26.69335 39951 ft 474 kts 334°
2026-04-26 07:12 36.27869 26.65878 39952 ft 474 kts 334°
2026-04-26 07:13 36.33843 26.62420 39956 ft 474 kts 334°
2026-04-26 07:13 36.39815 26.58952 39956 ft 474 kts 334°
2026-04-26 07:14 36.45786 26.55479 39955 ft 474 kts 334°
2026-04-26 07:14 36.51720 26.52023 39963 ft 474 kts 334°
2026-04-26 07:15 36.57694 26.48540 39960 ft 474 kts 334°
2026-04-26 07:15 36.63669 26.45055 39963 ft 474 kts 334°
2026-04-26 07:16 36.69651 26.41559 39965 ft 474 kts 334°
2026-04-26 07:16 36.75626 26.38059 39976 ft 474 kts 334°
2026-04-26 07:17 36.81597 26.34556 39966 ft 474 kts 334°
2026-04-26 07:17 36.87562 26.31051 39966 ft 473 kts 334°
2026-04-26 07:18 36.93518 26.27544 39967 ft 473 kts 334°
2026-04-26 07:18 36.99463 26.24032 39976 ft 472 kts 334°
2026-04-26 07:19 37.05325 26.20466 39973 ft 470 kts 334°
2026-04-26 07:19 37.11185 26.16865 39967 ft 469 kts 334°
2026-04-26 07:20 37.17038 26.13273 39977 ft 467 kts 334°
2026-04-26 07:20 37.22872 26.09694 39981 ft 466 kts 334°
2026-04-26 07:21 37.28691 26.06121 39981 ft 466 kts 334°
2026-04-26 07:21 37.34519 26.02535 39986 ft 466 kts 334°
2026-04-26 07:22 37.40347 25.98943 39990 ft 466 kts 334°
2026-04-26 07:22 37.46178 25.95342 39990 ft 467 kts 334°
2026-04-26 07:23 37.51969 25.91759 39995 ft 466 kts 334°
2026-04-26 07:23 37.57779 25.88159 39994 ft 465 kts 334°
2026-04-26 07:24 37.63591 25.84554 39995 ft 464 kts 334°
2026-04-26 07:24 37.69385 25.80956 39995 ft 464 kts 334°
2026-04-26 07:25 37.75167 25.77359 39998 ft 463 kts 334°
2026-04-26 07:25 37.80949 25.73755 40006 ft 463 kts 334°
2026-04-26 07:26 37.86735 25.70141 40007 ft 463 kts 334°
2026-04-26 07:26 37.92509 25.66529 40008 ft 463 kts 334°
2026-04-26 07:27 37.98290 25.62906 40008 ft 463 kts 334°
2026-04-26 07:27 38.04067 25.59278 40011 ft 463 kts 335°
2026-04-26 07:28 38.09817 25.55662 40013 ft 463 kts 335°
2026-04-26 07:28 38.15599 25.52019 40027 ft 464 kts 335°
2026-04-26 07:29 38.21371 25.48376 40019 ft 464 kts 334°
2026-04-26 07:29 38.27152 25.44720 40006 ft 464 kts 335°
2026-04-26 07:30 38.32936 25.41057 40032 ft 464 kts 335°
2026-04-26 07:30 38.38726 25.37383 40033 ft 464 kts 335°
2026-04-26 07:31 38.44511 25.33705 40025 ft 464 kts 334°
2026-04-26 07:31 38.50295 25.30022 40025 ft 465 kts 334°
2026-04-26 07:32 38.56035 25.26360 40032 ft 464 kts 334°
2026-04-26 07:32 38.61806 25.22671 40032 ft 464 kts 334°
2026-04-26 07:33 38.67577 25.18975 40028 ft 464 kts 334°
2026-04-26 07:33 38.73344 25.15276 40032 ft 463 kts 334°
2026-04-26 07:34 38.79106 25.11573 40033 ft 463 kts 334°
2026-04-26 07:34 38.84852 25.07873 40030 ft 462 kts 334°
2026-04-26 07:35 38.90593 25.04170 40029 ft 461 kts 334°
2026-04-26 07:35 38.96328 25.00465 40029 ft 461 kts 334°
2026-04-26 07:36 39.02052 24.96758 40040 ft 460 kts 334°
2026-04-26 07:36 39.07763 24.93055 40034 ft 459 kts 334°
2026-04-26 07:37 39.13478 24.89399 40031 ft 458 kts 335°
2026-04-26 07:37 39.19181 24.85887 40036 ft 457 kts 335°
2026-04-26 07:38 39.24913 24.82353 40039 ft 456 kts 335°
2026-04-26 07:38 39.30639 24.78797 40034 ft 456 kts 335°
2026-04-26 07:39 39.36354 24.75234 40036 ft 456 kts 335°
2026-04-26 07:39 39.42065 24.71667 40038 ft 456 kts 335°
2026-04-26 07:40 39.47775 24.68095 40039 ft 456 kts 335°
2026-04-26 07:40 39.53490 24.64516 40043 ft 456 kts 334°
2026-04-26 07:41 39.59204 24.60934 40038 ft 456 kts 334°
2026-04-26 07:41 39.64918 24.57345 40038 ft 456 kts 334°
2026-04-26 07:42 39.70629 24.53750 40036 ft 456 kts 334°
2026-04-26 07:42 39.76336 24.50152 40042 ft 456 kts 334°
2026-04-26 07:43 39.82044 24.46545 40045 ft 456 kts 334°
2026-04-26 07:43 39.87743 24.42938 40043 ft 455 kts 334°
2026-04-26 07:44 39.93441 24.39324 40029 ft 455 kts 334°
2026-04-26 07:44 39.99099 24.35730 40038 ft 455 kts 334°
2026-04-26 07:45 40.04794 24.32105 40028 ft 455 kts 334°
2026-04-26 07:45 40.10485 24.28475 40034 ft 455 kts 334°
2026-04-26 07:46 40.16187 24.24832 40035 ft 455 kts 334°
2026-04-26 07:46 40.21876 24.21191 40033 ft 455 kts 334°
2026-04-26 07:47 40.27576 24.17535 40029 ft 455 kts 334°
2026-04-26 07:47 40.33262 24.13881 40026 ft 455 kts 334°
2026-04-26 07:48 40.38951 24.10219 40030 ft 456 kts 333°
2026-04-26 07:48 40.44610 24.06569 40029 ft 455 kts 333°
2026-04-26 07:49 40.50305 24.02889 40028 ft 455 kts 333°
2026-04-26 07:49 40.55989 23.99208 40030 ft 455 kts 333°
2026-04-26 07:50 40.63563 23.94342 40028 ft 455 kts 334°
2026-04-26 07:50 40.69274 23.90770 40039 ft 455 kts 334°
2026-04-26 07:51 40.74991 23.87190 40033 ft 455 kts 334°
2026-04-26 07:51 40.80701 23.83593 40033 ft 454 kts 333°
2026-04-26 07:52 40.86405 23.79989 40033 ft 454 kts 333°
2026-04-26 07:52 40.92081 23.76394 40037 ft 454 kts 333°
2026-04-26 07:53 40.97782 23.72777 40031 ft 454 kts 333°
2026-04-26 07:53 41.03467 23.69164 40037 ft 454 kts 333°
2026-04-26 07:54 41.09161 23.65537 40034 ft 453 kts 333°
2026-04-26 07:54 41.14846 23.61910 40052 ft 453 kts 333°
2026-04-26 07:55 41.20531 23.58275 40026 ft 454 kts 333°
2026-04-26 07:55 41.26218 23.54635 40048 ft 453 kts 333°
2026-04-26 07:56 41.31880 23.51008 40025 ft 454 kts 333°
2026-04-26 07:56 41.37565 23.47360 40062 ft 454 kts 332°
2026-04-26 07:57 41.43255 23.43692 40037 ft 454 kts 332°
2026-04-26 07:57 41.48923 23.39998 40041 ft 453 kts 332°
2026-04-26 07:58 41.54586 23.36296 40041 ft 453 kts 332°
2026-04-26 07:58 41.60256 23.32585 40069 ft 453 kts 332°
2026-04-26 07:59 41.65912 23.28878 40056 ft 453 kts 332°
2026-04-26 07:59 41.71564 23.25167 40056 ft 453 kts 332°
2026-04-26 08:00 41.77225 23.21443 40061 ft 453 kts 332°
2026-04-26 08:00 41.82842 23.17740 40091 ft 452 kts 331°
2026-04-26 08:01 41.88490 23.14010 40064 ft 452 kts 331°
2026-04-26 08:01 41.94134 23.10274 40074 ft 452 kts 331°
2026-04-26 08:02 41.99770 23.06536 40069 ft 451 kts 331°
2026-04-26 08:02 42.05394 23.02799 40082 ft 450 kts 331°
2026-04-26 08:03 42.11016 22.99056 40078 ft 450 kts 331°
2026-04-26 08:03 42.16586 22.95339 40073 ft 449 kts 331°
2026-04-26 08:04 42.22181 22.91599 40073 ft 449 kts 331°
2026-04-26 08:04 42.27756 22.87865 40091 ft 449 kts 330°
2026-04-26 08:05 42.33367 22.84097 40080 ft 449 kts 330°
2026-04-26 08:05 42.38954 22.80334 40076 ft 449 kts 330°
2026-04-26 08:06 42.44544 22.76561 40074 ft 448 kts 330°
2026-04-26 08:06 42.50118 22.72791 40070 ft 448 kts 330°
2026-04-26 08:07 42.55692 22.69015 40063 ft 447 kts 330°
2026-04-26 08:07 42.61247 22.65242 40067 ft 446 kts 330°
2026-04-26 08:08 42.66794 22.61468 40067 ft 446 kts 330°
2026-04-26 08:08 42.72324 22.57698 40073 ft 447 kts 330°
2026-04-26 08:09 42.77920 22.53875 40068 ft 448 kts 330°
2026-04-26 08:09 42.83488 22.50065 40063 ft 448 kts 330°
2026-04-26 08:10 42.89034 22.46282 40072 ft 448 kts 330°
2026-04-26 08:10 42.94614 22.42496 40091 ft 448 kts 330°
2026-04-26 08:11 43.00206 22.38694 40065 ft 448 kts 330°
2026-04-26 08:11 43.05786 22.34887 40065 ft 448 kts 330°
2026-04-26 08:12 43.11360 22.31075 40058 ft 447 kts 330°
2026-04-26 08:12 43.16924 22.27263 40084 ft 447 kts 330°
2026-04-26 08:13 43.22479 22.23447 40071 ft 447 kts 330°
2026-04-26 08:13 43.28044 22.19618 40069 ft 447 kts 330°
2026-04-26 08:14 43.33610 22.15779 40065 ft 448 kts 330°
2026-04-26 08:14 43.39146 22.11953 40087 ft 448 kts 330°
2026-04-26 08:15 43.44734 22.08084 40068 ft 450 kts 330°
2026-04-26 08:15 43.50319 22.04209 40068 ft 450 kts 330°
2026-04-26 08:16 43.55909 22.00323 40069 ft 450 kts 330°
2026-04-26 08:16 43.61505 21.96423 40059 ft 451 kts 330°
2026-04-26 08:17 43.67112 21.92508 40055 ft 451 kts 330°
2026-04-26 08:17 43.72712 21.88590 40046 ft 451 kts 330°
2026-04-26 08:18 43.78309 21.84666 40062 ft 450 kts 330°
2026-04-26 08:18 43.83896 21.80740 40042 ft 450 kts 330°
2026-04-26 08:19 43.89483 21.76806 40053 ft 450 kts 331°
2026-04-26 08:19 43.95062 21.72869 40051 ft 449 kts 330°
2026-04-26 08:20 44.00592 21.68958 40054 ft 449 kts 330°
2026-04-26 08:20 44.06176 21.65001 40061 ft 449 kts 330°
2026-04-26 08:21 44.11756 21.61038 40066 ft 450 kts 331°
2026-04-26 08:21 44.17334 21.57068 40059 ft 450 kts 331°
2026-04-26 08:22 44.22915 21.53087 40052 ft 450 kts 331°
2026-04-26 08:22 44.28450 21.49131 40062 ft 449 kts 331°
2026-04-26 08:23 44.34008 21.45150 40048 ft 449 kts 330°
2026-04-26 08:23 44.39573 21.41153 40064 ft 449 kts 331°
2026-04-26 08:24 44.45120 21.37160 40059 ft 448 kts 331°
2026-04-26 08:24 44.50665 21.33158 40046 ft 448 kts 330°
2026-04-26 08:25 44.56204 21.29153 40059 ft 448 kts 330°
2026-04-26 08:25 44.61740 21.25141 40058 ft 447 kts 330°
2026-04-26 08:26 44.67229 21.21155 40045 ft 447 kts 331°
2026-04-26 08:26 44.72751 21.17136 40063 ft 447 kts 330°
2026-04-26 08:27 44.78270 21.13110 40063 ft 447 kts 330°
2026-04-26 08:27 44.83798 21.09069 40062 ft 447 kts 330°
2026-04-26 08:28 44.89320 21.05023 40044 ft 447 kts 330°
2026-04-26 08:28 44.94841 21.00970 40040 ft 448 kts 330°
2026-04-26 08:29 45.00366 20.96905 40042 ft 448 kts 330°
2026-04-26 08:29 45.05893 20.92829 40046 ft 448 kts 330°
2026-04-26 08:30 45.11386 20.88770 40046 ft 448 kts 330°
2026-04-26 08:30 45.16916 20.84674 40046 ft 448 kts 330°
2026-04-26 08:31 45.22445 20.80570 40038 ft 449 kts 330°
2026-04-26 08:31 45.27977 20.76454 40055 ft 449 kts 330°
2026-04-26 08:32 45.33524 20.72318 40049 ft 450 kts 330°
2026-04-26 08:32 45.39071 20.68173 40047 ft 451 kts 330°
2026-04-26 08:33 45.44633 20.64008 40047 ft 451 kts 330°
2026-04-26 08:33 45.50184 20.59841 40058 ft 451 kts 330°
2026-04-26 08:34 45.55738 20.55663 40050 ft 451 kts 330°
2026-04-26 08:34 45.61294 20.51474 40051 ft 451 kts 330°
2026-04-26 08:35 45.66848 20.47276 40047 ft 451 kts 330°
2026-04-26 08:35 45.72357 20.43104 40049 ft 451 kts 330°
2026-04-26 08:36 45.77903 20.38894 40057 ft 451 kts 330°
2026-04-26 08:36 45.83447 20.34676 40052 ft 450 kts 330°
2026-04-26 08:37 45.88045 20.31170 40054 ft 450 kts 330°
2026-04-26 08:37 45.93565 20.26953 40057 ft 449 kts 330°
2026-04-26 08:38 45.99088 20.22723 40063 ft 449 kts 330°
2026-04-26 08:38 46.04598 20.18494 40054 ft 449 kts 330°
2026-04-26 08:39 46.10111 20.14252 40057 ft 449 kts 330°
2026-04-26 08:39 46.15625 20.10002 40058 ft 449 kts 330°
2026-04-26 08:40 46.21114 20.05679 40052 ft 449 kts 329°
2026-04-26 08:40 46.26575 20.01278 40068 ft 449 kts 329°
2026-04-26 08:41 46.32008 19.96892 40049 ft 447 kts 329°
2026-04-26 08:41 46.37441 19.92509 40058 ft 445 kts 329°
2026-04-26 08:42 46.42805 19.88177 40055 ft 443 kts 329°
2026-04-26 08:42 46.48169 19.83836 40075 ft 442 kts 329°
2026-04-26 08:43 46.53489 19.79521 40062 ft 440 kts 329°
2026-04-26 08:43 46.58797 19.75205 40055 ft 438 kts 329°
2026-04-26 08:44 46.64107 19.70879 40067 ft 437 kts 329°
2026-04-26 08:44 46.69404 19.66551 40064 ft 437 kts 329°
2026-04-26 08:45 46.74719 19.62201 40078 ft 438 kts 328°
2026-04-26 08:45 46.80046 19.57830 40066 ft 440 kts 328°
2026-04-26 08:46 46.85396 19.53430 40077 ft 442 kts 328°
2026-04-26 08:46 46.90769 19.49000 40068 ft 444 kts 328°
2026-04-26 08:47 46.96161 19.44546 40073 ft 445 kts 328°
2026-04-26 08:47 47.01557 19.40078 40067 ft 445 kts 328°
2026-04-26 08:48 47.06828 19.35703 40080 ft 444 kts 328°
2026-04-26 08:48 47.11783 19.31581 40076 ft 443 kts 328°
2026-04-26 08:49 47.17043 19.27195 40085 ft 440 kts 328°
2026-04-26 08:49 47.22292 19.22807 40077 ft 438 kts 328°
2026-04-26 08:50 47.27593 19.18368 40079 ft 436 kts 328°
2026-04-26 08:50 47.31169 19.15121 40066 ft 433 kts 320°
2026-04-26 08:51 47.33261 19.12246 40054 ft 431 kts 312°
2026-04-26 08:52 47.36670 19.05123 40082 ft 428 kts 296°
2026-04-26 08:52 47.39154 18.97079 40092 ft 433 kts 295°
2026-04-26 08:52 47.40391 18.93008 39814 ft 438 kts 295°
2026-04-26 08:53 47.41652 18.88890 39217 ft 440 kts 296°
2026-04-26 08:53 47.42920 18.84781 38493 ft 439 kts 296°
2026-04-26 08:53 47.44193 18.80682 37638 ft 439 kts 296°
2026-04-26 08:53 47.45469 18.76578 36816 ft 438 kts 296°
2026-04-26 08:54 47.46742 18.72484 35964 ft 439 kts 296°
2026-04-26 08:54 47.48019 18.68374 35026 ft 442 kts 297°
2026-04-26 08:54 47.49309 18.64211 34019 ft 446 kts 297°
2026-04-26 08:54 47.50590 18.60072 32884 ft 450 kts 297°
2026-04-26 08:55 47.51896 18.55842 31746 ft 454 kts 297°
2026-04-26 08:55 47.53225 18.51530 30719 ft 456 kts 296°
2026-04-26 08:55 47.54432 18.47205 29852 ft 454 kts 292°
2026-04-26 08:55 47.55379 18.42815 28937 ft 451 kts 290°
2026-04-26 08:56 47.56298 18.38398 28112 ft 447 kts 290°
2026-04-26 08:56 47.57212 18.34019 27306 ft 443 kts 290°
2026-04-26 08:56 47.58123 18.29677 26505 ft 440 kts 290°
2026-04-26 08:56 47.59033 18.25356 25694 ft 437 kts 290°
2026-04-26 08:57 47.59937 18.21069 24923 ft 434 kts 290°
2026-04-26 08:57 47.60835 18.16816 24162 ft 432 kts 290°
2026-04-26 08:57 47.61729 18.12575 23326 ft 430 kts 290°
2026-04-26 08:57 47.62615 18.08364 22484 ft 426 kts 290°
2026-04-26 08:58 47.63497 18.04180 21739 ft 421 kts 290°
2026-04-26 08:58 47.64366 18.00150 21025 ft 401 kts 291°
2026-04-26 08:58 47.65211 17.96285 20184 ft 388 kts 291°
2026-04-26 08:58 47.66043 17.92500 19282 ft 387 kts 291°
2026-04-26 08:59 47.66867 17.88743 18555 ft 376 kts 290°
2026-04-26 08:59 47.67657 17.85124 17473 ft 371 kts 290°
2026-04-26 08:59 47.68455 17.81457 16426 ft 366 kts 291°
2026-04-26 08:59 47.69228 17.77893 15631 ft 362 kts 291°
2026-04-26 09:00 47.69986 17.74389 15035 ft 360 kts 291°
2026-04-26 09:00 47.70750 17.70853 14451 ft 359 kts 291°
2026-04-26 09:00 47.71509 17.67328 13857 ft 357 kts 291°
2026-04-26 09:00 47.72266 17.63812 13216 ft 355 kts 291°
2026-04-26 09:01 47.73003 17.60377 12694 ft 350 kts 291°
2026-04-26 09:01 47.73739 17.56940 12130 ft 347 kts 291°
2026-04-26 09:01 47.74453 17.53587 11560 ft 332 kts 291°
2026-04-26 09:01 47.75130 17.50401 11005 ft 318 kts 291°
2026-04-26 09:02 47.75791 17.47295 10769 ft 308 kts 291°
2026-04-26 09:02 47.76420 17.44332 10602 ft 290 kts 291°
2026-04-26 09:02 47.77001 17.41580 10475 ft 270 kts 292°
2026-04-26 09:02 47.77555 17.38970 10359 ft 259 kts 292°
2026-04-26 09:03 47.78085 17.36472 10264 ft 248 kts 292°
2026-04-26 09:03 47.78593 17.34074 10159 ft 238 kts 292°
2026-04-26 09:03 47.79081 17.31766 10062 ft 228 kts 292°
2026-04-26 09:03 47.79547 17.29565 9945 ft 219 kts 293°
2026-04-26 09:04 47.80007 17.27396 9723 ft 220 kts 293°
2026-04-26 09:04 47.80474 17.25206 9491 ft 227 kts 292°
2026-04-26 09:04 47.80958 17.22929 9238 ft 234 kts 292°
2026-04-26 09:04 47.81446 17.20617 8967 ft 233 kts 292°
2026-04-26 09:05 47.81923 17.18340 8695 ft 229 kts 292°
2026-04-26 09:05 47.82395 17.16092 8451 ft 226 kts 292°
2026-04-26 09:05 47.82853 17.13903 8196 ft 222 kts 292°
2026-04-26 09:05 47.83309 17.11726 7943 ft 219 kts 292°
2026-04-26 09:06 47.83762 17.09565 7711 ft 219 kts 292°
2026-04-26 09:06 47.84219 17.07384 7482 ft 223 kts 291°
2026-04-26 09:06 47.84685 17.05156 7246 ft 227 kts 291°
2026-04-26 09:06 47.85157 17.02897 6990 ft 228 kts 291°
2026-04-26 09:07 47.85625 17.00651 6742 ft 225 kts 291°
2026-04-26 09:07 47.86086 16.98429 6487 ft 224 kts 291°
2026-04-26 09:07 47.86549 16.96200 6221 ft 226 kts 291°
2026-04-26 09:07 47.87015 16.93952 5971 ft 227 kts 291°
2026-04-26 09:08 47.87474 16.91740 5718 ft 227 kts 291°
2026-04-26 09:08 47.87939 16.89493 5472 ft 227 kts 291°
2026-04-26 09:08 47.88402 16.87253 5227 ft 226 kts 291°
2026-04-26 09:08 47.88866 16.85010 4984 ft 227 kts 291°
2026-04-26 09:09 47.89330 16.82761 4718 ft 228 kts 291°
2026-04-26 09:09 47.89797 16.80499 4467 ft 228 kts 291°
2026-04-26 09:09 47.90259 16.78257 4235 ft 229 kts 291°
2026-04-26 09:09 47.90722 16.76010 4116 ft 223 kts 291°
2026-04-26 09:10 47.91154 16.73889 3988 ft 205 kts 292°
2026-04-26 09:10 47.91554 16.71934 3916 ft 191 kts 293°
2026-04-26 09:10 47.91928 16.70099 3824 ft 181 kts 292°
2026-04-26 09:10 47.92294 16.68322 3774 ft 177 kts 294°
2026-04-26 09:11 47.92861 16.66779 3637 ft 168 kts 326°
2026-04-26 09:11 47.93888 16.66012 3603 ft 168 kts 337°
2026-04-26 09:11 47.94962 16.65329 3361 ft 165 kts 338°
2026-04-26 09:11 47.96006 16.64683 3161 ft 159 kts 339°
2026-04-26 09:12 47.97034 16.64156 3019 ft 160 kts 342°
2026-04-26 09:12 47.98069 16.63691 2832 ft 150 kts 343°
2026-04-26 09:12 47.99031 16.63279 2627 ft 139 kts 343°
2026-04-26 09:12 47.99912 16.62909 2450 ft 124 kts 344°
2026-04-26 09:13 48.00685 16.62584 2289 ft 107 kts 343°
2026-04-26 09:13 48.01424 16.62271 2144 ft 116 kts 343°
2026-04-26 09:13 48.02212 16.61937 1977 ft 117 kts 343°
2026-04-26 09:13 48.02973 16.61620 1826 ft 112 kts 343°
2026-04-26 09:14 48.03721 16.61300 1660 ft 112 kts 343°
2026-04-26 09:14 48.04455 16.60987 1515 ft 106 kts 345°
2026-04-26 09:14 48.05171 16.60685 1352 ft 105 kts 345°
2026-04-26 09:14 48.05886 16.60382 1211 ft 112 kts 346°
2026-04-26 09:15 48.06642 16.60054 1087 ft 110 kts 346°
2026-04-26 09:15 48.07377 16.59744 906 ft 111 kts 347°
2026-04-26 09:15 48.08118 16.59438 777 ft 113 kts 347°
2026-04-26 09:15 48.08885 16.59121 661 ft 114 kts 345°
2026-04-26 09:16 48.09578 16.58832 622 ft 88 kts 345°
2026-04-26 09:16 48.10048 16.58635 625 ft 52 kts 345°
2026-04-26 09:16 48.10325 16.58517 621 ft 35 kts 344°
2026-04-26 09:16 48.10539 16.58427 628 ft 30 kts 344°
2026-04-26 09:17 48.10740 16.58342 628 ft 31 kts 344°
2026-04-26 09:17 48.10894 16.58277 629 ft 37 kts 344°
2026-04-26 09:17 48.11245 16.58128 623 ft 37 kts 344°
2026-04-26 09:17 48.11475 16.58031 626 ft 31 kts 344°
2026-04-26 09:18 48.11675 16.57946 627 ft 30 kts 344°
2026-04-26 09:18 48.11830 16.57836 626 ft 18 kts 308°
2026-04-26 09:18 48.11859 16.57695 624 ft 12 kts 270°
2026-04-26 09:18 48.11842 16.57576 626 ft 12 kts 255°
2026-04-26 09:19 48.11819 16.57459 621 ft 12 kts 253°
2026-04-26 09:19 48.11811 16.57341 621 ft 12 kts 295°
2026-04-26 09:19 48.11849 16.57235 626 ft 11 kts 298°
2026-04-26 09:19 48.11883 16.57130 622 ft 8 kts 296°
2026-04-26 09:20 48.11880 16.57101 618 ft 3 kts 242°
2026-04-26 09:20 48.11863 16.57080 629 ft 4 kts 216°
2026-04-26 09:20 48.11840 16.57062 627 ft 4 kts 205°
2026-04-26 09:20 48.11817 16.57045 629 ft 4 kts 206°
2026-04-26 09:21 48.11812 16.57042 629 ft 0 kts 206°